| time (UTC) | temp F | wind direction | speed knots | gust knots | rain 1hr in | rain 24hr in | rain mn in | humidity % | barometer mb |
| 20260509024601 | 60 | 355 | 0.9 | 7.0 | 0.00 | 0.00 | 0.00 | 71 | 1010.2 |
| 20260509024501 | 60 | 13 | 0.9 | 8.7 | 0.00 | 0.00 | 0.00 | 71 | 1010.1 |
| 20260509024402 | 60 | 342 | 1.7 | 8.7 | 0.00 | 0.00 | 0.00 | 70 | 1010.1 |
| 20260509024301 | 60 | 338 | 3.5 | 8.7 | 0.00 | 0.00 | 0.00 | 70 | 1010.2 |
| 20260509024203 | 60 | 337 | 3.5 | 8.7 | 0.00 | 0.00 | 0.00 | 70 | 1010.2 |
| 20260509024001 | 60 | 324 | 2.6 | 8.7 | 0.00 | 0.00 | 0.00 | 69 | 1010.0 |
| 20260509023901 | 61 | 9 | 1.7 | 8.7 | 0.00 | 0.00 | 0.00 | 68 | 1009.9 |
| 20260509023800 | 61 | 335 | 0.9 | 8.7 | 0.00 | 0.00 | 0.00 | 68 | 1010.0 |
| 20260509023701 | 61 | 355 | 1.7 | 8.7 | 0.00 | 0.00 | 0.00 | 67 | 1010.1 |
| 20260509023601 | 61 | 339 | 2.6 | 7.8 | 0.00 | 0.00 | 0.00 | 66 | 1010.1 |
| 20260509023501 | 61 | 360 | 0.9 | 4.3 | 0.00 | 0.00 | 0.00 | 66 | 1010.0 |
| 20260509023401 | 61 | 5 | 3.5 | 4.3 | 0.00 | 0.00 | 0.00 | 65 | 1010.2 |
| 20260509023303 | 62 | 40 | 1.7 | 3.5 | 0.00 | 0.00 | 0.00 | 64 | 1010.2 |
| 20260509023200 | 62 | 347 | 1.7 | 3.5 | 0.00 | 0.00 | 0.00 | 62 | 1010.1 |
| 20260509023102 | 62 | 232 | 1.7 | 3.5 | 0.00 | 0.00 | 0.00 | 61 | 1010.1 |
| 20260509023001 | 62 | 261 | 0.0 | 3.5 | 0.00 | 0.00 | 0.00 | 60 | 1009.9 |
| 20260509022900 | 62 | 257 | 0.9 | 3.5 | 0.00 | 0.00 | 0.00 | 59 | 1009.8 |
| 20260509022559 | 61 | 200 | 0.0 | 3.5 | 0.00 | 0.00 | 0.00 | 58 | 1009.7 |
| 20260509022502 | 61 | 208 | 0.0 | 0.0 | 0.00 | 0.00 | 0.00 | 59 | 1009.7 |
| 20260509022401 | 61 | 198 | 0.0 | 0.0 | 0.00 | 0.00 | 0.00 | 59 | 1009.6 |
| 20260509022306 | 62 | 149 | 0.0 | 0.0 | 0.00 | 0.00 | 0.00 | 60 | 1009.7 |
| 20260509022201 | 62 | 149 | 0.0 | 0.0 | 0.00 | 0.00 | 0.00 | 59 | 1009.7 |
| 20260509022102 | 62 | 149 | 0.0 | 0.0 | 0.00 | 0.00 | 0.00 | 59 | 1009.7 |
| 20260509022001 | 62 | 149 | 0.0 | 0.0 | 0.00 | 0.00 | 0.00 | 60 | 1009.7 |
| 20260509021900 | 62 | 175 | 0.0 | 0.0 | 0.00 | 0.00 | 0.00 | 60 | 1009.6 |
| 20260509021802 | 62 | 175 | 0.0 | 0.0 | 0.00 | 0.00 | 0.00 | 59 | 1009.6 |
| 20260509021701 | 62 | 188 | 0.0 | 0.0 | 0.00 | 0.00 | 0.00 | 61 | 1009.6 |
| 20260509021601 | 62 | 202 | 0.0 | 0.0 | 0.00 | 0.00 | 0.00 | 61 | 1009.7 |
| 20260509021501 | 62 | 202 | 0.0 | 0.0 | 0.00 | 0.00 | 0.00 | 61 | 1009.7 |
| 20260509021401 | 62 | 202 | 0.0 | 0.0 | 0.00 | 0.00 | 0.00 | 60 | 1009.7 |
| 20260509021300 | 62 | 202 | 0.0 | 0.0 | 0.00 | 0.00 | 0.00 | 61 | 1009.7 |
| 20260509021100 | 62 | 202 | 0.0 | 0.0 | 0.00 | 0.00 | 0.00 | 62 | 1009.7 |
| 20260509021002 | 62 | 202 | 0.0 | 0.0 | 0.00 | 0.00 | 0.00 | 62 | 1009.7 |
| 20260509020901 | 62 | 202 | 0.0 | 0.0 | 0.00 | 0.00 | 0.00 | 60 | 1009.7 |
| 20260509020800 | 62 | 202 | 0.0 | 0.0 | 0.00 | 0.00 | 0.00 | 61 | 1009.7 |
| 20260509020700 | 62 | 207 | 0.0 | 0.0 | 0.00 | 0.00 | 0.00 | 60 | 1009.7 |
| 20260509020600 | 62 | 207 | 0.0 | 0.0 | 0.00 | 0.00 | 0.00 | 60 | 1009.7 |
| 20260509020501 | 62 | 207 | 0.0 | 0.0 | 0.00 | 0.00 | 0.00 | 60 | 1009.6 |
| 20260509020301 | 62 | 207 | 0.0 | 0.0 | 0.00 | 0.00 | 0.00 | 60 | 1009.7 |
| 20260509020201 | 62 | 207 | 0.0 | 0.0 | 0.00 | 0.00 | 0.00 | 62 | 1009.7 |
| 20260509020101 | 62 | 210 | 0.0 | 0.0 | 0.00 | 0.00 | 0.00 | 60 | 1009.7 |
| 20260509020000 | 62 | 210 | 0.0 | 0.0 | 0.00 | 0.00 | 0.00 | 60 | 1009.6 |
| 20260509015801 | 62 | 210 | 0.0 | 0.9 | 0.00 | 0.00 | 0.00 | 60 | 1009.6 |
| 20260509015501 | 62 | 210 | 0.0 | 1.7 | 0.00 | 0.00 | 0.00 | 60 | 1009.7 |
| 20260509015300 | 62 | 209 | 0.0 | 1.7 | 0.00 | 0.00 | 0.00 | 59 | 1009.6 |
| 20260509015201 | 62 | 209 | 0.0 | 1.7 | 0.00 | 0.00 | 0.00 | 60 | 1009.6 |
| 20260509015101 | 62 | 209 | 0.0 | 1.7 | 0.00 | 0.00 | 0.00 | 58 | 1009.6 |
| 20260509015000 | 62 | 209 | 0.0 | 1.7 | 0.00 | 0.00 | 0.00 | 58 | 1009.6 |
| 20260509014902 | 62 | 195 | 0.0 | 1.7 | 0.00 | 0.00 | 0.00 | 59 | 1009.6 |
| 20260509014801 | 62 | 221 | 0.0 | 0.9 | 0.00 | 0.00 | 0.00 | 60 | 1009.6 |
| 20260509014700 | 62 | 215 | 0.0 | 0.9 | 0.00 | 0.00 | 0.00 | 60 | 1009.6 |
| 20260509014601 | 62 | 215 | 0.0 | 0.9 | 0.00 | 0.00 | 0.00 | 60 | 1009.6 |
| 20260509014500 | 62 | 215 | 0.0 | 1.7 | 0.00 | 0.00 | 0.00 | 60 | 1009.6 |
| 20260509014400 | 62 | 215 | 0.0 | 1.7 | 0.00 | 0.00 | 0.00 | 59 | 1009.5 |
| 20260509014300 | 62 | 215 | 0.0 | 1.7 | 0.00 | 0.00 | 0.00 | 59 | 1009.5 |
| 20260509014200 | 62 | 215 | 0.0 | 1.7 | 0.00 | 0.00 | 0.00 | 59 | 1009.5 |
| 20260509014000 | 62 | 215 | 0.0 | 1.7 | 0.00 | 0.00 | 0.00 | 58 | 1009.5 |
| 20260509013802 | 62 | 215 | 0.0 | 1.7 | 0.00 | 0.00 | 0.00 | 60 | 1009.5 |
| 20260509013700 | 62 | 215 | 0.0 | 1.7 | 0.00 | 0.00 | 0.00 | 60 | 1009.4 |
| 20260509013600 | 62 | 215 | 0.0 | 1.7 | 0.00 | 0.00 | 0.00 | 61 | 1009.5 |
| 20260509013502 | 63 | 215 | 0.0 | 1.7 | 0.00 | 0.00 | 0.00 | 61 | 1009.5 |
| 20260509013400 | 63 | 215 | 0.0 | 2.6 | 0.00 | 0.00 | 0.00 | 60 | 1009.5 |
| 20260509013300 | 63 | 215 | 0.0 | 2.6 | 0.00 | 0.00 | 0.00 | 59 | 1009.4 |
| 20260509013200 | 63 | 215 | 0.0 | 2.6 | 0.00 | 0.00 | 0.00 | 59 | 1009.5 |
| 20260509013100 | 63 | 215 | 0.0 | 2.6 | 0.00 | 0.00 | 0.00 | 59 | 1009.5 |
| 20260509012901 | 63 | 215 | 0.0 | 2.6 | 0.00 | 0.00 | 0.00 | 59 | 1009.4 |
| 20260509012802 | 63 | 253 | 0.9 | 2.6 | 0.00 | 0.00 | 0.00 | 60 | 1009.5 |
| 20260509012459 | 63 | 184 | 0.0 | 2.6 | 0.00 | 0.00 | 0.00 | 59 | 1009.6 |
| 20260509012402 | 63 | 184 | 0.0 | 2.6 | 0.00 | 0.00 | 0.00 | 58 | 1009.6 |
| 20260509012301 | 63 | 184 | 0.0 | 2.6 | 0.00 | 0.00 | 0.00 | 58 | 1009.6 |
| 20260509012201 | 63 | 184 | 0.0 | 2.6 | 0.00 | 0.00 | 0.00 | 57 | 1009.6 |
| 20260509012102 | 63 | 184 | 0.0 | 2.6 | 0.00 | 0.00 | 0.00 | 57 | 1009.6 |
| 20260509011900 | 63 | 184 | 0.9 | 5.2 | 0.00 | 0.00 | 0.00 | 57 | 1009.6 |
| 20260509011801 | 63 | 244 | 0.0 | 5.2 | 0.00 | 0.00 | 0.00 | 59 | 1009.7 |
| 20260509011601 | 63 | 258 | 0.0 | 5.2 | 0.00 | 0.00 | 0.00 | 57 | 1009.6 |
| 20260509011500 | 63 | 259 | 0.0 | 5.2 | 0.00 | 0.00 | 0.00 | 56 | 1009.7 |
| 20260509011300 | 63 | 336 | 0.0 | 5.2 | 0.00 | 0.00 | 0.00 | 57 | 1009.7 |
| 20260509011200 | 63 | 302 | 0.9 | 5.2 | 0.00 | 0.00 | 0.00 | 56 | 1009.7 |
| 20260509011101 | 63 | 226 | 1.7 | 5.2 | 0.00 | 0.00 | 0.00 | 57 | 1009.7 |
| 20260509011000 | 64 | 223 | 0.0 | 4.3 | 0.00 | 0.00 | 0.00 | 58 | 1009.7 |
| 20260509010902 | 64 | 211 | 0.0 | 4.3 | 0.00 | 0.00 | 0.00 | 58 | 1009.7 |
| 20260509010802 | 64 | 211 | 0.0 | 4.3 | 0.00 | 0.00 | 0.00 | 58 | 1009.7 |
| 20260509010700 | 64 | 211 | 0.9 | 4.3 | 0.00 | 0.00 | 0.00 | 57 | 1009.8 |
| 20260509010602 | 64 | 208 | 0.9 | 4.3 | 0.00 | 0.00 | 0.00 | 56 | 1009.7 |
| 20260509010400 | 64 | 238 | 0.0 | 2.6 | 0.00 | 0.00 | 0.00 | 57 | 1009.7 |
| 20260509010302 | 64 | 250 | 2.6 | 2.6 | 0.00 | 0.00 | 0.00 | 57 | 1009.7 |
| 20260509010101 | 64 | 223 | 0.0 | 2.6 | 0.00 | 0.00 | 0.00 | 56 | 1009.7 |
| 20260509010003 | 64 | 223 | 0.9 | 2.6 | 0.00 | 0.00 | 0.00 | 56 | 1009.7 |
| 20260509005902 | 64 | 216 | 0.0 | 2.6 | 0.00 | 0.00 | 0.00 | 56 | 1009.6 |
| 20260509005801 | 64 | 177 | 0.9 | 2.6 | 0.00 | 0.00 | 0.00 | 55 | 1009.6 |
| 20260509005701 | 64 | 194 | 1.7 | 2.6 | 0.00 | 0.00 | 0.00 | 55 | 1009.6 |
| 20260509005601 | 64 | 217 | 0.0 | 2.6 | 0.00 | 0.00 | 0.00 | 53 | 1009.5 |
| 20260509005402 | 65 | 188 | 2.6 | 2.6 | 0.00 | 0.00 | 0.00 | 55 | 1009.6 |
| 20260509005306 | 65 | 263 | 0.0 | 1.7 | 0.00 | 0.00 | 0.00 | 54 | 1009.6 |
| 20260509005202 | 65 | 263 | 0.0 | 2.6 | 0.00 | 0.00 | 0.00 | 53 | 1009.5 |
| 20260509005101 | 65 | 239 | 0.0 | 2.6 | 0.00 | 0.00 | 0.00 | 54 | 1009.4 |
| 20260509004900 | 65 | 239 | 0.0 | 2.6 | 0.00 | 0.00 | 0.00 | 53 | 1009.4 |
| 20260509004800 | 65 | 225 | 0.0 | 2.6 | 0.00 | 0.00 | 0.00 | 53 | 1009.4 |
| 20260509004600 | 65 | 225 | 0.0 | 2.6 | 0.00 | 0.00 | 0.00 | 53 | 1009.4 |
| 20260509004401 | 65 | 195 | 0.9 | 2.6 | 0.00 | 0.00 | 0.00 | 52 | 1009.5 |
| 20260509004300 | 65 | 211 | 1.7 | 1.7 | 0.00 | 0.00 | 0.00 | 51 | 1009.4 |
| 20260509004101 | 65 | 194 | 0.0 | 1.7 | 0.00 | 0.00 | 0.00 | 51 | 1009.5 |
| 20260509004000 | 65 | 189 | 0.0 | 1.7 | 0.00 | 0.00 | 0.00 | 51 | 1009.4 |
| 20260509003802 | 65 | 207 | 0.0 | 1.7 | 0.00 | 0.00 | 0.00 | 51 | 1009.4 |
| 20260509003602 | 65 | 188 | 0.0 | 2.6 | 0.00 | 0.00 | 0.00 | 51 | 1009.4 |
| 20260509003501 | 65 | 188 | 0.0 | 3.5 | 0.00 | 0.00 | 0.00 | 51 | 1009.4 |
| 20260509003301 | 65 | 188 | 0.0 | 3.5 | 0.00 | 0.00 | 0.00 | 50 | 1009.3 |
| 20260509003204 | 65 | 188 | 0.0 | 3.5 | 0.00 | 0.00 | 0.00 | 50 | 1009.3 |
| 20260509003101 | 65 | 188 | 0.0 | 3.5 | 0.00 | 0.00 | 0.00 | 50 | 1009.3 |
| 20260509002800 | 65 | 164 | 0.9 | 3.5 | 0.00 | 0.00 | 0.00 | 49 | 1009.3 |
| 20260509002700 | 65 | 166 | 0.9 | 3.5 | 0.00 | 0.00 | 0.00 | 49 | 1009.3 |
| 20260509002602 | 65 | 214 | 0.9 | 3.5 | 0.00 | 0.00 | 0.00 | 50 | 1009.3 |
| 20260509002500 | 65 | 198 | 0.0 | 3.5 | 0.00 | 0.00 | 0.00 | 49 | 1009.2 |
| 20260509002400 | 65 | 200 | 0.0 | 3.5 | 0.00 | 0.00 | 0.00 | 50 | 1009.3 |
| 20260509002305 | 65 | 200 | 0.0 | 3.5 | 0.00 | 0.00 | 0.00 | 49 | 1009.3 |
| 20260509002200 | 65 | 202 | 2.6 | 3.5 | 0.00 | 0.00 | 0.00 | 50 | 1009.2 |
| 20260509002100 | 65 | 207 | 0.0 | 2.6 | 0.00 | 0.00 | 0.00 | 49 | 1009.3 |
| 20260509001901 | 65 | 67 | 0.0 | 2.6 | 0.00 | 0.00 | 0.00 | 49 | 1009.2 |
| 20260509001800 | 65 | 310 | 1.7 | 2.6 | 0.00 | 0.00 | 0.00 | 49 | 1009.2 |
| 20260509001700 | 65 | 166 | 0.0 | 1.7 | 0.00 | 0.00 | 0.00 | 50 | 1009.3 |
| 20260509001601 | 65 | 169 | 0.0 | 1.7 | 0.00 | 0.00 | 0.00 | 50 | 1009.2 |
| 20260509001500 | 65 | 169 | 0.9 | 1.7 | 0.00 | 0.00 | 0.00 | 50 | 1009.3 |
| 20260509001400 | 65 | 209 | 0.0 | 1.7 | 0.00 | 0.00 | 0.00 | 49 | 1009.2 |
| 20260509001202 | 66 | 163 | 0.0 | 1.7 | 0.00 | 0.00 | 0.00 | 50 | 1009.3 |
| 20260509001100 | 66 | 163 | 0.0 | 2.6 | 0.00 | 0.00 | 0.00 | 50 | 1009.3 |
| 20260509000901 | 66 | 163 | 0.0 | 3.5 | 0.00 | 0.00 | 0.00 | 50 | 1009.3 |
| 20260509000801 | 66 | 202 | 0.9 | 3.5 | 0.00 | 0.00 | 0.00 | 50 | 1009.3 |
| 20260509000703 | 66 | 213 | 0.0 | 3.5 | 0.00 | 0.00 | 0.00 | 49 | 1009.3 |
| 20260509000602 | 66 | 205 | 0.0 | 3.5 | 0.00 | 0.00 | 0.00 | 50 | 1009.3 |
| 20260509000501 | 66 | 202 | 0.0 | 3.5 | 0.00 | 0.00 | 0.00 | 49 | 1009.3 |
| 20260509000402 | 66 | 202 | 0.0 | 3.5 | 0.00 | 0.00 | 0.00 | 49 | 1009.4 |
| 20260509000303 | 66 | 136 | 0.0 | 3.5 | 0.00 | 0.00 | 0.00 | 50 | 1009.4 |
| 20260509000159 | 66 | 207 | 1.7 | 3.5 | 0.00 | 0.00 | 0.00 | 49 | 1009.4 |
| 20260509000100 | 66 | 171 | 0.9 | 3.5 | 0.00 | 0.00 | 0.00 | 49 | 1009.3 |
| 20260509000004 | 66 | 166 | 0.0 | 0.9 | 0.00 | 0.00 | 0.00 | 49 | 1009.3 |
| 20260508235900 | 66 | 167 | 0.0 | 0.9 | 0.00 | 0.00 | 0.00 | 49 | 1009.4 |
| 20260508235800 | 66 | 203 | 0.0 | 0.9 | 0.00 | 0.00 | 0.00 | 50 | 1009.4 |
| 20260508235701 | 66 | 213 | 0.0 | 0.9 | 0.00 | 0.00 | 0.00 | 49 | 1009.4 |
| 20260508235601 | 66 | 254 | 0.0 | 0.9 | 0.00 | 0.00 | 0.00 | 50 | 1009.3 |
| 20260508235500 | 66 | 254 | 0.0 | 2.6 | 0.00 | 0.00 | 0.00 | 50 | 1009.3 |
| 20260508235401 | 66 | 262 | 0.0 | 2.6 | 0.00 | 0.00 | 0.00 | 50 | 1009.3 |
| 20260508235301 | 66 | 262 | 0.0 | 2.6 | 0.00 | 0.00 | 0.00 | 49 | 1009.3 |
| 20260508235200 | 66 | 262 | 0.0 | 3.5 | 0.00 | 0.00 | 0.00 | 49 | 1009.2 |
| 20260508234803 | 66 | 195 | 0.0 | 3.5 | 0.00 | 0.00 | 0.00 | 48 | 1009.3 |
| 20260508234500 | 66 | 42 | 0.9 | 3.5 | 0.00 | 0.00 | 0.00 | 48 | 1009.3 |
| 20260508234401 | 66 | 195 | 0.9 | 3.5 | 0.00 | 0.00 | 0.00 | 49 | 1009.3 |
| 20260508234301 | 66 | 208 | 1.7 | 2.6 | 0.00 | 0.00 | 0.00 | 48 | 1009.3 |
| 20260508234200 | 66 | 178 | 0.0 | 2.6 | 0.00 | 0.00 | 0.00 | 48 | 1009.2 |
| 20260508234100 | 66 | 159 | 1.7 | 2.6 | 0.00 | 0.00 | 0.00 | 48 | 1009.3 |
| 20260508234000 | 66 | 213 | 1.7 | 2.6 | 0.00 | 0.00 | 0.00 | 48 | 1009.2 |
| 20260508233901 | 66 | 216 | 0.0 | 2.6 | 0.00 | 0.00 | 0.00 | 48 | 1009.2 |
| 20260508233800 | 66 | 216 | 0.0 | 2.6 | 0.00 | 0.00 | 0.00 | 47 | 1009.2 |
| 20260508233700 | 66 | 225 | 0.9 | 2.6 | 0.00 | 0.00 | 0.00 | 47 | 1009.2 |
| 20260508233602 | 66 | 208 | 0.9 | 1.7 | 0.00 | 0.00 | 0.00 | 47 | 1009.3 |
| 20260508233401 | 66 | 212 | 0.0 | 2.6 | 0.00 | 0.00 | 0.00 | 48 | 1009.2 |
| 20260508233300 | 66 | 197 | 0.0 | 4.3 | 0.00 | 0.00 | 0.00 | 48 | 1009.2 |
| 20260508233201 | 66 | 257 | 0.0 | 4.3 | 0.00 | 0.00 | 0.00 | 49 | 1009.2 |
| 20260508233100 | 66 | 256 | 0.0 | 4.3 | 0.00 | 0.00 | 0.00 | 48 | 1009.2 |
| 20260508233000 | 66 | 256 | 0.0 | 4.3 | 0.00 | 0.00 | 0.00 | 48 | 1009.2 |
| 20260508232902 | 66 | 273 | 0.0 | 4.3 | 0.00 | 0.00 | 0.00 | 48 | 1009.2 |
| 20260508232800 | 66 | 189 | 0.0 | 4.3 | 0.00 | 0.00 | 0.00 | 47 | 1009.2 |
| 20260508232701 | 66 | 186 | 0.0 | 4.3 | 0.00 | 0.00 | 0.00 | 47 | 1009.3 |
| 20260508232502 | 67 | 293 | 2.6 | 5.2 | 0.00 | 0.00 | 0.00 | 47 | 1009.4 |
| 20260508232400 | 67 | 228 | 0.9 | 5.2 | 0.00 | 0.00 | 0.00 | 48 | 1009.3 |
| 20260508232301 | 67 | 211 | 0.0 | 5.2 | 0.00 | 0.00 | 0.00 | 48 | 1009.3 |
| 20260508232200 | 67 | 211 | 0.0 | 5.2 | 0.00 | 0.00 | 0.00 | 47 | 1009.3 |
| 20260508232100 | 67 | 273 | 1.7 | 5.2 | 0.00 | 0.00 | 0.00 | 47 | 1009.4 |
| 20260508232002 | 67 | 304 | 0.0 | 5.2 | 0.00 | 0.00 | 0.00 | 46 | 1009.4 |
| 20260508231901 | 67 | 270 | 1.7 | 5.2 | 0.00 | 0.00 | 0.00 | 47 | 1009.4 |
| 20260508231804 | 67 | 168 | 5.2 | 5.2 | 0.00 | 0.00 | 0.00 | 47 | 1009.3 |
| 20260508231700 | 67 | 207 | 0.0 | 4.3 | 0.00 | 0.00 | 0.00 | 47 | 1009.4 |
| 20260508231600 | 67 | 211 | 0.9 | 4.3 | 0.00 | 0.00 | 0.00 | 46 | 1009.4 |
| 20260508231502 | 67 | 188 | 0.9 | 4.3 | 0.00 | 0.00 | 0.00 | 47 | 1009.3 |
| 20260508231401 | 67 | 183 | 0.9 | 4.3 | 0.00 | 0.00 | 0.00 | 46 | 1009.3 |
| 20260508231301 | 67 | 15 | 1.7 | 4.3 | 0.00 | 0.00 | 0.00 | 47 | 1009.4 |
| 20260508231200 | 67 | 204 | 0.9 | 3.5 | 0.00 | 0.00 | 0.00 | 46 | 1009.4 |
| 20260508231102 | 67 | 217 | 1.7 | 3.5 | 0.00 | 0.00 | 0.00 | 46 | 1009.3 |
| 20260508231000 | 67 | 198 | 1.7 | 3.5 | 0.00 | 0.00 | 0.00 | 46 | 1009.3 |
| 20260508230901 | 67 | 180 | 0.9 | 3.5 | 0.00 | 0.00 | 0.00 | 46 | 1009.3 |
| 20260508230801 | 67 | 199 | 2.6 | 3.5 | 0.00 | 0.00 | 0.00 | 47 | 1009.3 |
| 20260508230701 | 67 | 265 | 0.0 | 3.5 | 0.00 | 0.00 | 0.00 | 46 | 1009.2 |
| 20260508230601 | 67 | 25 | 2.6 | 3.5 | 0.00 | 0.00 | 0.00 | 47 | 1009.2 |
| 20260508230500 | 67 | 202 | 1.7 | 3.5 | 0.00 | 0.00 | 0.00 | 46 | 1009.2 |
| 20260508230402 | 67 | 261 | 0.9 | 3.5 | 0.00 | 0.00 | 0.00 | 47 | 1009.2 |
| 20260508230300 | 67 | 215 | 0.9 | 3.5 | 0.00 | 0.00 | 0.00 | 46 | 1009.2 |
| 20260508230201 | 67 | 196 | 0.9 | 2.6 | 0.00 | 0.00 | 0.00 | 46 | 1009.2 |
| 20260508230000 | 67 | 205 | 0.0 | 2.6 | 0.00 | 0.00 | 0.00 | 46 | 1009.3 |
| 20260508225901 | 67 | 210 | 0.0 | 2.6 | 0.00 | 0.00 | 0.00 | 46 | 1009.2 |
| 20260508225800 | 67 | 243 | 0.0 | 2.6 | 0.00 | 0.00 | 0.00 | 46 | 1009.2 |
| 20260508225700 | 67 | 225 | 0.0 | 2.6 | 0.00 | 0.00 | 0.00 | 46 | 1009.2 |
| 20260508225401 | 67 | 171 | 0.0 | 3.5 | 0.00 | 0.00 | 0.00 | 46 | 1009.2 |
| 20260508225301 | 67 | 189 | 0.0 | 3.5 | 0.00 | 0.00 | 0.00 | 46 | 1009.2 |
| 20260508225102 | 67 | 208 | 0.0 | 4.3 | 0.00 | 0.00 | 0.00 | 45 | 1009.1 |
| 20260508225003 | 67 | 186 | 0.0 | 4.3 | 0.00 | 0.00 | 0.00 | 45 | 1009.1 |
| 20260508224901 | 67 | 140 | 1.7 | 4.3 | 0.00 | 0.00 | 0.00 | 45 | 1009.0 |
| 20260508224759 | 67 | 117 | 0.9 | 4.3 | 0.00 | 0.00 | 0.00 | 46 | 1009.1 |
| 20260508224700 | 67 | 213 | 0.9 | 4.3 | 0.00 | 0.00 | 0.00 | 45 | 1009.1 |
| 20260508224601 | 67 | 198 | 0.0 | 4.3 | 0.00 | 0.00 | 0.00 | 45 | 1009.1 |
| 20260508224500 | 67 | 132 | 0.9 | 4.3 | 0.00 | 0.00 | 0.00 | 45 | 1009.1 |
| 20260508224400 | 67 | 234 | 2.6 | 4.3 | 0.00 | 0.00 | 0.00 | 46 | 1009.1 |
| 20260508224301 | 67 | 188 | 0.0 | 4.3 | 0.00 | 0.00 | 0.00 | 45 | 1009.1 |
| 20260508224200 | 67 | 282 | 1.7 | 4.3 | 0.00 | 0.00 | 0.00 | 45 | 1009.1 |
| 20260508224100 | 67 | 227 | 1.7 | 4.3 | 0.00 | 0.00 | 0.00 | 45 | 1009.1 |
| 20260508224001 | 67 | 155 | 0.9 | 4.3 | 0.00 | 0.00 | 0.00 | 46 | 1009.1 |
| 20260508223902 | 67 | 140 | 0.0 | 4.3 | 0.00 | 0.00 | 0.00 | 45 | 1009.1 |
| 20260508223800 | 67 | 181 | 3.5 | 4.3 | 0.00 | 0.00 | 0.00 | 45 | 1009.1 |
| 20260508223700 | 68 | 219 | 3.5 | 4.3 | 0.00 | 0.00 | 0.00 | 46 | 1009.1 |
| 20260508223602 | 68 | 223 | 0.0 | 5.2 | 0.00 | 0.00 | 0.00 | 46 | 1009.1 |
| 20260508223500 | 68 | 304 | 0.0 | 5.2 | 0.00 | 0.00 | 0.00 | 46 | 1009.1 |
| 20260508223400 | 68 | 190 | 0.0 | 6.1 | 0.00 | 0.00 | 0.00 | 46 | 1009.1 |
| 20260508223102 | 68 | 219 | 0.0 | 6.1 | 0.00 | 0.00 | 0.00 | 45 | 1009.1 |
| 20260508223002 | 68 | 217 | 0.0 | 6.1 | 0.00 | 0.00 | 0.00 | 44 | 1009.0 |
| 20260508222800 | 68 | 229 | 1.7 | 6.1 | 0.00 | 0.00 | 0.00 | 45 | 1009.0 |
| 20260508222600 | 68 | 227 | 2.6 | 6.1 | 0.00 | 0.00 | 0.00 | 45 | 1009.0 |
| 20260508222306 | 68 | 156 | 0.9 | 4.3 | 0.00 | 0.00 | 0.00 | 45 | 1009.1 |
| 20260508222201 | 68 | 173 | 0.9 | 5.2 | 0.00 | 0.00 | 0.00 | 45 | 1009.1 |
| 20260508222100 | 68 | 264 | 2.6 | 5.2 | 0.00 | 0.00 | 0.00 | 45 | 1009.1 |
| 20260508222001 | 68 | 160 | 1.7 | 6.1 | 0.00 | 0.00 | 0.00 | 45 | 1009.1 |
| 20260508221801 | 68 | 208 | 1.7 | 6.1 | 0.00 | 0.00 | 0.00 | 44 | 1009.1 |
| 20260508221700 | 68 | 194 | 0.9 | 6.1 | 0.00 | 0.00 | 0.00 | 44 | 1009.1 |
| 20260508221500 | 68 | 129 | 2.6 | 6.1 | 0.00 | 0.00 | 0.00 | 43 | 1009.1 |
| 20260508221302 | 68 | 164 | 4.3 | 6.1 | 0.00 | 0.00 | 0.00 | 44 | 1009.1 |
| 20260508221201 | 68 | 188 | 1.7 | 6.1 | 0.00 | 0.00 | 0.00 | 44 | 1009.0 |
| 20260508221100 | 68 | 205 | 6.1 | 6.1 | 0.00 | 0.00 | 0.00 | 43 | 1009.0 |
| 20260508221001 | 68 | 188 | 1.7 | 6.1 | 0.00 | 0.00 | 0.00 | 43 | 1009.0 |
| 20260508220900 | 68 | 130 | 3.5 | 7.0 | 0.00 | 0.00 | 0.00 | 44 | 1009.0 |
| 20260508220801 | 68 | 188 | 1.7 | 7.0 | 0.00 | 0.00 | 0.00 | 44 | 1009.0 |
| 20260508220700 | 68 | 222 | 4.3 | 7.0 | 0.00 | 0.00 | 0.00 | 44 | 1009.0 |
| 20260508220503 | 68 | 9 | 1.7 | 7.0 | 0.00 | 0.00 | 0.00 | 45 | 1009.0 |
| 20260508220400 | 68 | 153 | 0.9 | 7.0 | 0.00 | 0.00 | 0.00 | 45 | 1009.0 |
| 20260508220301 | 68 | 201 | 1.7 | 7.0 | 0.00 | 0.00 | 0.00 | 44 | 1009.0 |
| 20260508220100 | 68 | 155 | 0.9 | 8.7 | 0.00 | 0.00 | 0.00 | 44 | 1008.9 |
| 20260508220003 | 68 | 195 | 0.9 | 7.0 | 0.00 | 0.00 | 0.00 | 44 | 1008.9 |
| 20260508215900 | 68 | 211 | 3.5 | 6.1 | 0.00 | 0.00 | 0.00 | 44 | 1008.9 |
| 20260508215802 | 68 | 198 | 0.0 | 7.0 | 0.00 | 0.00 | 0.00 | 43 | 1008.9 |
| 20260508215701 | 68 | 168 | 4.3 | 7.0 | 0.00 | 0.00 | 0.00 | 44 | 1008.9 |
| 20260508215500 | 68 | 248 | 0.9 | 7.8 | 0.00 | 0.00 | 0.00 | 44 | 1009.0 |
| 20260508215402 | 68 | 214 | 0.0 | 7.8 | 0.00 | 0.00 | 0.00 | 44 | 1008.9 |
| 20260508215301 | 69 | 152 | 0.9 | 7.8 | 0.00 | 0.00 | 0.00 | 44 | 1009.0 |
| 20260508215200 | 68 | 113 | 1.7 | 7.8 | 0.00 | 0.00 | 0.00 | 45 | 1009.0 |
| 20260508215101 | 69 | 141 | 0.0 | 7.8 | 0.00 | 0.00 | 0.00 | 44 | 1009.0 |
| 20260508215000 | 69 | 141 | 0.9 | 7.8 | 0.00 | 0.00 | 0.00 | 44 | 1008.9 |
| 20260508214802 | 69 | 142 | 2.6 | 7.8 | 0.00 | 0.00 | 0.00 | 43 | 1008.9 |
| 20260508214700 | 69 | 213 | 0.9 | 4.3 | 0.00 | 0.00 | 0.00 | 43 | 1008.9 |
| 20260508214601 | 69 | 209 | 1.7 | 4.3 | 0.00 | 0.00 | 0.00 | 43 | 1009.0 |
| 20260508214500 | 69 | 200 | 0.0 | 4.3 | 0.00 | 0.00 | 0.00 | 45 | 1009.1 |
| 20260508214401 | 69 | 234 | 1.7 | 4.3 | 0.00 | 0.00 | 0.00 | 43 | 1009.1 |
| 20260508214303 | 69 | 288 | 1.7 | 7.0 | 0.00 | 0.00 | 0.00 | 44 | 1009.0 |
| 20260508214203 | 69 | 163 | 1.7 | 7.0 | 0.00 | 0.00 | 0.00 | 44 | 1009.1 |
| 20260508214101 | 69 | 295 | 0.9 | 7.0 | 0.00 | 0.00 | 0.00 | 43 | 1008.9 |
| 20260508214004 | 69 | 150 | 2.6 | 7.0 | 0.00 | 0.00 | 0.00 | 45 | 1008.9 |
| 20260508213901 | 69 | 160 | 0.9 | 7.0 | 0.00 | 0.00 | 0.00 | 45 | 1009.0 |
| 20260508213801 | 69 | 162 | 0.9 | 7.0 | 0.00 | 0.00 | 0.00 | 44 | 1009.1 |
| 20260508213701 | 69 | 165 | 4.3 | 7.0 | 0.00 | 0.00 | 0.00 | 43 | 1009.1 |
| 20260508213600 | 69 | 360 | 0.9 | 7.0 | 0.00 | 0.00 | 0.00 | 42 | 1009.1 |
| 20260508213501 | 69 | 206 | 0.9 | 7.0 | 0.00 | 0.00 | 0.00 | 44 | 1009.1 |
| 20260508213400 | 69 | 213 | 0.9 | 7.0 | 0.00 | 0.00 | 0.00 | 43 | 1009.1 |
| 20260508213301 | 69 | 209 | 2.6 | 7.8 | 0.00 | 0.00 | 0.00 | 43 | 1009.1 |
| 20260508213000 | 69 | 198 | 0.0 | 7.8 | 0.00 | 0.00 | 0.00 | 43 | 1009.1 |
| 20260508212901 | 69 | 261 | 1.7 | 7.8 | 0.00 | 0.00 | 0.00 | 42 | 1009.1 |
| 20260508212702 | 69 | 182 | 1.7 | 7.8 | 0.00 | 0.00 | 0.00 | 42 | 1009.2 |
| 20260508212600 | 70 | 252 | 1.7 | 7.8 | 0.00 | 0.00 | 0.00 | 41 | 1009.2 |
| 20260508212502 | 70 | 171 | 4.3 | 7.8 | 0.00 | 0.00 | 0.00 | 40 | 1009.2 |
| 20260508212400 | 70 | 187 | 4.3 | 7.8 | 0.00 | 0.00 | 0.00 | 41 | 1009.2 |
| 20260508212300 | 70 | 182 | 3.5 | 7.8 | 0.00 | 0.00 | 0.00 | 42 | 1009.2 |
| 20260508212200 | 70 | 160 | 4.3 | 7.8 | 0.00 | 0.00 | 0.00 | 41 | 1009.2 |
| 20260508212101 | 70 | 200 | 0.9 | 7.8 | 0.00 | 0.00 | 0.00 | 41 | 1009.2 |
| 20260508211900 | 71 | 173 | 1.7 | 7.8 | 0.00 | 0.00 | 0.00 | 41 | 1009.1 |
| 20260508211800 | 71 | 220 | 5.2 | 5.2 | 0.00 | 0.00 | 0.00 | 43 | 1009.1 |
| 20260508211702 | 71 | 225 | 0.9 | 4.3 | 0.00 | 0.00 | 0.00 | 43 | 1009.1 |
| 20260508211601 | 71 | 265 | 0.9 | 4.3 | 0.00 | 0.00 | 0.00 | 43 | 1009.1 |
| 20260508211501 | 71 | 267 | 2.6 | 6.1 | 0.00 | 0.00 | 0.00 | 42 | 1009.1 |
| 20260508211401 | 71 | 290 | 0.0 | 6.1 | 0.00 | 0.00 | 0.00 | 40 | 1009.1 |
| 20260508211303 | 71 | 244 | 3.5 | 6.1 | 0.00 | 0.00 | 0.00 | 41 | 1009.2 |
| 20260508211200 | 71 | 186 | 1.7 | 6.1 | 0.00 | 0.00 | 0.00 | 40 | 1009.3 |
| 20260508211000 | 70 | 160 | 0.0 | 6.1 | 0.00 | 0.00 | 0.00 | 43 | 1009.3 |
| 20260508210903 | 70 | 291 | 3.5 | 6.1 | 0.00 | 0.00 | 0.00 | 43 | 1009.3 |
| 20260508210801 | 70 | 131 | 0.9 | 6.1 | 0.00 | 0.00 | 0.00 | 43 | 1009.3 |
| 20260508210700 | 70 | 206 | 0.9 | 6.1 | 0.00 | 0.00 | 0.00 | 42 | 1009.2 |
| 20260508210603 | 70 | 103 | 3.5 | 6.1 | 0.00 | 0.00 | 0.00 | 44 | 1009.2 |
| 20260508210402 | 70 | 194 | 1.7 | 6.1 | 0.00 | 0.00 | 0.00 | 43 | 1009.3 |
| 20260508210301 | 70 | 184 | 1.7 | 6.1 | 0.00 | 0.00 | 0.00 | 42 | 1009.3 |
| 20260508210201 | 70 | 193 | 4.3 | 6.1 | 0.00 | 0.00 | 0.00 | 41 | 1009.4 |
| 20260508210005 | 69 | 191 | 4.3 | 6.1 | 0.00 | 0.00 | 0.00 | 41 | 1009.5 |
| 20260508205900 | 69 | 293 | 3.5 | 6.1 | 0.00 | 0.00 | 0.00 | 44 | 1009.6 |
| 20260508205800 | 69 | 251 | 0.9 | 6.1 | 0.00 | 0.00 | 0.00 | 43 | 1009.6 |
| 20260508205702 | 69 | 252 | 2.6 | 6.1 | 0.00 | 0.00 | 0.00 | 43 | 1009.6 |
| 20260508205500 | 69 | 210 | 4.3 | 6.1 | 0.00 | 0.00 | 0.00 | 43 | 1009.7 |
| 20260508205400 | 68 | 178 | 2.6 | 6.1 | 0.00 | 0.00 | 0.00 | 42 | 1009.7 |
| 20260508205301 | 68 | 207 | 4.3 | 6.1 | 0.00 | 0.00 | 0.00 | 43 | 1009.6 |
| 20260508205202 | 68 | 197 | 4.3 | 6.1 | 0.00 | 0.00 | 0.00 | 43 | 1009.7 |
| 20260508205100 | 68 | 239 | 0.9 | 6.1 | 0.00 | 0.00 | 0.00 | 43 | 1009.7 |
| 20260508205001 | 68 | 193 | 0.9 | 10.4 | 0.00 | 0.00 | 0.00 | 43 | 1009.7 |
| 20260508204900 | 68 | 191 | 2.6 | 10.4 | 0.00 | 0.00 | 0.00 | 43 | 1009.7 |
| 20260508204701 | 68 | 184 | 0.9 | 10.4 | 0.00 | 0.00 | 0.00 | 44 | 1009.7 |
| 20260508204601 | 68 | 186 | 0.9 | 10.4 | 0.00 | 0.00 | 0.00 | 42 | 1009.7 |
| 20260508204500 | 69 | 212 | 0.9 | 10.4 | 0.00 | 0.00 | 0.00 | 42 | 1009.8 |
| 20260508204400 | 68 | 150 | 1.7 | 10.4 | 0.00 | 0.00 | 0.00 | 43 | 1009.9 |
| 20260508204100 | 68 | 190 | 0.9 | 10.4 | 0.00 | 0.00 | 0.00 | 43 | 1009.9 |
| 20260508204002 | 68 | 202 | 2.6 | 6.1 | 0.00 | 0.00 | 0.00 | 43 | 1009.9 |
| 20260508203800 | 68 | 163 | 0.9 | 7.8 | 0.00 | 0.00 | 0.00 | 44 | 1009.9 |
| 20260508203700 | 68 | 192 | 1.7 | 7.8 | 0.00 | 0.00 | 0.00 | 44 | 1009.9 |
| 20260508203602 | 68 | 152 | 0.0 | 7.8 | 0.00 | 0.00 | 0.00 | 43 | 1009.8 |
| 20260508203503 | 68 | 214 | 0.9 | 7.8 | 0.00 | 0.00 | 0.00 | 43 | 1009.9 |
| 20260508203400 | 68 | 267 | 0.0 | 7.8 | 0.00 | 0.00 | 0.00 | 42 | 1010.0 |
| 20260508203302 | 68 | 226 | 3.5 | 7.8 | 0.00 | 0.00 | 0.00 | 41 | 1010.0 |
| 20260508203200 | 68 | 190 | 3.5 | 7.8 | 0.00 | 0.00 | 0.00 | 42 | 1010.0 |
| 20260508203100 | 68 | 164 | 3.5 | 7.8 | 0.00 | 0.00 | 0.00 | 44 | 1010.1 |
| 20260508203001 | 68 | 212 | 0.9 | 7.8 | 0.00 | 0.00 | 0.00 | 42 | 1010.0 |
| 20260508202900 | 68 | 130 | 0.9 | 7.8 | 0.00 | 0.00 | 0.00 | 42 | 1010.2 |
| 20260508202801 | 68 | 204 | 1.7 | 7.8 | 0.00 | 0.00 | 0.00 | 42 | 1010.0 |
| 20260508202703 | 68 | 208 | 1.7 | 7.8 | 0.00 | 0.00 | 0.00 | 44 | 1010.0 |
| 20260508202602 | 68 | 257 | 0.0 | 7.8 | 0.00 | 0.00 | 0.00 | 43 | 1010.1 |
| 20260508202501 | 69 | 184 | 2.6 | 7.8 | 0.00 | 0.00 | 0.00 | 41 | 1010.1 |
| 20260508202306 | 69 | 166 | 3.5 | 7.8 | 0.00 | 0.00 | 0.00 | 42 | 1010.2 |
| 20260508202200 | 69 | 201 | 7.8 | 7.8 | 0.00 | 0.00 | 0.00 | 41 | 1010.2 |
| 20260508202101 | 69 | 183 | 2.6 | 7.8 | 0.00 | 0.00 | 0.00 | 43 | 1010.1 |
| 20260508202000 | 69 | 302 | 3.5 | 7.8 | 0.00 | 0.00 | 0.00 | 43 | 1010.1 |
| 20260508201800 | 69 | 168 | 4.3 | 7.8 | 0.00 | 0.00 | 0.00 | 43 | 1010.1 |
| 20260508201600 | 69 | 242 | 7.8 | 7.8 | 0.00 | 0.00 | 0.00 | 42 | 1010.2 |
| 20260508201500 | 69 | 287 | 4.3 | 5.2 | 0.00 | 0.00 | 0.00 | 42 | 1010.1 |
| 20260508201159 | 69 | 315 | 2.6 | 5.2 | 0.00 | 0.00 | 0.00 | 44 | 1010.2 |
| 20260508201001 | 68 | 188 | 1.7 | 5.2 | 0.00 | 0.00 | 0.00 | 42 | 1010.3 |
| 20260508200900 | 68 | 216 | 1.7 | 5.2 | 0.00 | 0.00 | 0.00 | 44 | 1010.3 |
| 20260508200800 | 68 | 205 | 0.9 | 5.2 | 0.00 | 0.00 | 0.00 | 42 | 1010.2 |
| 20260508200701 | 68 | 191 | 1.7 | 6.1 | 0.00 | 0.00 | 0.00 | 43 | 1010.2 |
| 20260508200502 | 68 | 273 | 0.0 | 7.0 | 0.00 | 0.00 | 0.00 | 43 | 1010.3 |
| 20260508200400 | 68 | 195 | 0.9 | 7.0 | 0.00 | 0.00 | 0.00 | 44 | 1010.4 |
| 20260508200302 | 68 | 184 | 1.7 | 7.0 | 0.00 | 0.00 | 0.00 | 43 | 1010.3 |
| 20260508200200 | 68 | 71 | 0.9 | 7.0 | 0.00 | 0.00 | 0.00 | 43 | 1010.3 |
| 20260508200103 | 68 | 190 | 2.6 | 7.0 | 0.00 | 0.00 | 0.00 | 45 | 1010.3 |
| 20260508200000 | 68 | 254 | 0.0 | 7.0 | 0.00 | 0.00 | 0.00 | 43 | 1010.4 |
| 20260508195859 | 68 | 202 | 0.9 | 7.0 | 0.00 | 0.00 | 0.00 | 43 | 1010.4 |
| 20260508195700 | 68 | 112 | 2.6 | 7.0 | 0.00 | 0.00 | 0.00 | 43 | 1010.5 |
| 20260508195559 | 68 | 204 | 1.7 | 5.2 | 0.00 | 0.00 | 0.00 | 43 | 1010.5 |
| 20260508195259 | 68 | 203 | 2.6 | 5.2 | 0.00 | 0.00 | 0.00 | 43 | 1010.5 |
| 20260508195159 | 68 | 214 | 0.0 | 5.2 | 0.00 | 0.00 | 0.00 | 44 | 1010.5 |
| 20260508195059 | 68 | 193 | 0.9 | 5.2 | 0.00 | 0.00 | 0.00 | 42 | 1010.5 |
| 20260508194859 | 68 | 186 | 3.5 | 6.1 | 0.00 | 0.00 | 0.00 | 41 | 1010.5 |
| 20260508194800 | 68 | 153 | 2.6 | 7.8 | 0.00 | 0.00 | 0.00 | 42 | 1010.5 |
| 20260508194700 | 68 | 196 | 1.7 | 7.8 | 0.00 | 0.00 | 0.00 | 42 | 1010.4 |
| 20260508194559 | 68 | 149 | 1.7 | 7.8 | 0.00 | 0.00 | 0.00 | 41 | 1010.4 |
| 20260508194500 | 68 | 194 | 1.7 | 7.8 | 0.00 | 0.00 | 0.00 | 42 | 1010.5 |
| 20260508194300 | 68 | 186 | 0.9 | 7.8 | 0.00 | 0.00 | 0.00 | 41 | 1010.5 |
| 20260508194159 | 69 | 167 | 3.5 | 7.8 | 0.00 | 0.00 | 0.00 | 41 | 1010.5 |
| 20260508194059 | 69 | 212 | 1.7 | 7.8 | 0.00 | 0.00 | 0.00 | 42 | 1010.5 |
| 20260508193901 | 69 | 192 | 3.5 | 7.8 | 0.00 | 0.00 | 0.00 | 41 | 1010.5 |
| 20260508193759 | 69 | 205 | 3.5 | 6.1 | 0.00 | 0.00 | 0.00 | 41 | 1010.6 |
| 20260508193500 | 69 | 207 | 1.7 | 6.1 | 0.00 | 0.00 | 0.00 | 41 | 1010.5 |
| 20260508193402 | 69 | 202 | 1.7 | 6.1 | 0.00 | 0.00 | 0.00 | 41 | 1010.6 |
| 20260508193259 | 69 | 296 | 0.9 | 5.2 | 0.00 | 0.00 | 0.00 | 41 | 1010.5 |
| 20260508193201 | 69 | 220 | 2.6 | 5.2 | 0.00 | 0.00 | 0.00 | 40 | 1010.5 |
| 20260508193101 | 69 | 199 | 3.5 | 5.2 | 0.00 | 0.00 | 0.00 | 40 | 1010.6 |
| 20260508193001 | 70 | 49 | 0.9 | 6.1 | 0.00 | 0.00 | 0.00 | 40 | 1010.6 |
| 20260508192900 | 70 | 169 | 4.3 | 6.1 | 0.00 | 0.00 | 0.00 | 41 | 1010.6 |
| 20260508192800 | 70 | 116 | 0.9 | 6.1 | 0.00 | 0.00 | 0.00 | 40 | 1010.6 |
| 20260508192700 | 70 | 220 | 1.7 | 6.1 | 0.00 | 0.00 | 0.00 | 41 | 1010.7 |
| 20260508192600 | 70 | 203 | 0.9 | 4.3 | 0.00 | 0.00 | 0.00 | 41 | 1010.6 |
| 20260508192500 | 70 | 196 | 2.6 | 4.3 | 0.00 | 0.00 | 0.00 | 42 | 1010.6 |
| 20260508192300 | 70 | 286 | 0.0 | 5.2 | 0.00 | 0.00 | 0.00 | 41 | 1010.6 |
| 20260508192001 | 69 | 97 | 1.7 | 7.0 | 0.00 | 0.00 | 0.00 | 41 | 1010.7 |
| 20260508191900 | 69 | 222 | 2.6 | 7.0 | 0.00 | 0.00 | 0.00 | 40 | 1010.6 |
| 20260508191800 | 69 | 170 | 0.9 | 7.0 | 0.00 | 0.00 | 0.00 | 42 | 1010.7 |
| 20260508191701 | 69 | 133 | 0.9 | 7.0 | 0.00 | 0.00 | 0.00 | 40 | 1010.7 |
| 20260508191600 | 69 | 215 | 4.3 | 9.6 | 0.00 | 0.00 | 0.00 | 42 | 1010.8 |
| 20260508191500 | 69 | 145 | 2.6 | 9.6 | 0.00 | 0.00 | 0.00 | 41 | 1010.8 |
| 20260508191404 | 69 | 194 | 5.2 | 9.6 | 0.00 | 0.00 | 0.00 | 41 | 1010.8 |
| 20260508191201 | 69 | 176 | 0.0 | 9.6 | 0.00 | 0.00 | 0.00 | 43 | 1010.9 |
| 20260508191100 | 69 | 170 | 3.5 | 9.6 | 0.00 | 0.00 | 0.00 | 41 | 1010.9 |
| 20260508191000 | 69 | 200 | 0.9 | 9.6 | 0.00 | 0.00 | 0.00 | 40 | 1010.9 |
| 20260508190802 | 69 | 314 | 0.9 | 9.6 | 0.00 | 0.00 | 0.00 | 40 | 1010.9 |
| 20260508190700 | 70 | 219 | 1.7 | 8.7 | 0.00 | 0.00 | 0.00 | 39 | 1010.9 |
| 20260508190600 | 70 | 328 | 0.9 | 8.7 | 0.00 | 0.00 | 0.00 | 38 | 1011.0 |
| 20260508190500 | 70 | 211 | 1.7 | 8.7 | 0.00 | 0.00 | 0.00 | 39 | 1011.0 |
| 20260508190300 | 70 | 177 | 2.6 | 7.8 | 0.00 | 0.00 | 0.00 | 40 | 1010.9 |
| 20260508190203 | 70 | 214 | 1.7 | 7.0 | 0.00 | 0.00 | 0.00 | 40 | 1011.0 |
| 20260508185859 | 70 | 214 | 0.0 | 7.0 | 0.00 | 0.00 | 0.00 | 40 | 1011.1 |
| 20260508185659 | 70 | 202 | 2.6 | 7.0 | 0.00 | 0.00 | 0.00 | 40 | 1011.0 |
| 20260508185559 | 70 | 177 | 3.5 | 7.0 | 0.00 | 0.00 | 0.00 | 42 | 1011.0 |
| 20260508185501 | 70 | 209 | 2.6 | 7.0 | 0.00 | 0.00 | 0.00 | 42 | 1011.1 |
| 20260508185359 | 70 | 306 | 1.7 | 7.0 | 0.00 | 0.00 | 0.00 | 41 | 1011.1 |
| 20260508185259 | 70 | 169 | 1.7 | 7.8 | 0.00 | 0.00 | 0.00 | 39 | 1011.0 |
| 20260508185159 | 70 | 217 | 3.5 | 11.3 | 0.00 | 0.00 | 0.00 | 40 | 1011.1 |
| 20260508185059 | 70 | 207 | 5.2 | 11.3 | 0.00 | 0.00 | 0.00 | 42 | 1011.1 |
| 20260508185000 | 70 | 167 | 3.5 | 11.3 | 0.00 | 0.00 | 0.00 | 43 | 1011.1 |
| 20260508184900 | 70 | 321 | 1.7 | 11.3 | 0.00 | 0.00 | 0.00 | 42 | 1011.0 |
| 20260508184800 | 70 | 140 | 0.0 | 11.3 | 0.00 | 0.00 | 0.00 | 41 | 1011.1 |
| 20260508184659 | 70 | 203 | 2.6 | 11.3 | 0.00 | 0.00 | 0.00 | 40 | 1011.1 |
| 20260508184459 | 70 | 146 | 3.5 | 11.3 | 0.00 | 0.00 | 0.00 | 39 | 1011.1 |
| 20260508184400 | 70 | 174 | 1.7 | 11.3 | 0.00 | 0.00 | 0.00 | 39 | 1011.0 |
| 20260508184259 | 70 | 136 | 4.3 | 11.3 | 0.00 | 0.00 | 0.00 | 38 | 1011.1 |
| 20260508184100 | 70 | 225 | 2.6 | 8.7 | 0.00 | 0.00 | 0.00 | 39 | 1011.2 |
| 20260508184001 | 70 | 185 | 7.0 | 7.8 | 0.00 | 0.00 | 0.00 | 41 | 1011.2 |
| 20260508183859 | 70 | 18 | 1.7 | 7.8 | 0.00 | 0.00 | 0.00 | 39 | 1011.2 |
| 20260508183800 | 70 | 125 | 1.7 | 8.7 | 0.00 | 0.00 | 0.00 | 39 | 1011.2 |
| 20260508183700 | 70 | 152 | 2.6 | 8.7 | 0.00 | 0.00 | 0.00 | 41 | 1011.2 |
| 20260508183459 | 70 | 180 | 3.5 | 7.8 | 0.00 | 0.00 | 0.00 | 42 | 1011.3 |
| 20260508183358 | 70 | 160 | 4.3 | 7.8 | 0.00 | 0.00 | 0.00 | 42 | 1011.3 |
| 20260508183300 | 70 | 217 | 1.7 | 9.6 | 0.00 | 0.00 | 0.00 | 40 | 1011.3 |
| 20260508183201 | 70 | 215 | 4.3 | 9.6 | 0.00 | 0.00 | 0.00 | 41 | 1011.4 |
| 20260508183059 | 70 | 223 | 1.7 | 9.6 | 0.00 | 0.00 | 0.00 | 42 | 1011.4 |
| 20260508182959 | 69 | 159 | 0.9 | 9.6 | 0.00 | 0.00 | 0.00 | 40 | 1011.4 |
| 20260508182859 | 69 | 177 | 3.5 | 9.6 | 0.00 | 0.00 | 0.00 | 38 | 1011.5 |
| 20260508182801 | 69 | 196 | 2.6 | 9.6 | 0.00 | 0.00 | 0.00 | 40 | 1011.5 |
| 20260508182701 | 69 | 40 | 1.7 | 9.6 | 0.00 | 0.00 | 0.00 | 41 | 1011.6 |
| 20260508182559 | 69 | 296 | 0.9 | 9.6 | 0.00 | 0.00 | 0.00 | 40 | 1011.6 |
| 20260508182500 | 69 | 183 | 7.0 | 9.6 | 0.00 | 0.00 | 0.00 | 40 | 1011.6 |
| 20260508182358 | 69 | 215 | 6.1 | 7.8 | 0.00 | 0.00 | 0.00 | 41 | 1011.6 |
| 20260508182200 | 69 | 42 | 1.7 | 8.7 | 0.00 | 0.00 | 0.00 | 38 | 1011.7 |
| 20260508182100 | 70 | 267 | 3.5 | 8.7 | 0.00 | 0.00 | 0.00 | 38 | 1011.7 |
| 20260508181959 | 70 | 182 | 1.7 | 8.7 | 0.00 | 0.00 | 0.00 | 38 | 1011.8 |
| 20260508181859 | 70 | 124 | 0.9 | 8.7 | 0.00 | 0.00 | 0.00 | 39 | 1011.7 |
| 20260508181759 | 70 | 223 | 1.7 | 9.6 | 0.00 | 0.00 | 0.00 | 40 | 1011.8 |
| 20260508181701 | 70 | 242 | 0.9 | 9.6 | 0.00 | 0.00 | 0.00 | 39 | 1011.8 |
| 20260508181459 | 70 | 294 | 4.3 | 9.6 | 0.00 | 0.00 | 0.00 | 40 | 1011.8 |
| 20260508181400 | 70 | 344 | 7.8 | 9.6 | 0.00 | 0.00 | 0.00 | 40 | 1011.7 |
| 20260508181259 | 70 | 216 | 2.6 | 9.6 | 0.00 | 0.00 | 0.00 | 40 | 1011.8 |
| 20260508181200 | 70 | 209 | 2.6 | 9.6 | 0.00 | 0.00 | 0.00 | 43 | 1011.8 |
| 20260508181059 | 69 | 311 | 1.7 | 9.6 | 0.00 | 0.00 | 0.00 | 39 | 1011.8 |
| 20260508181001 | 69 | 128 | 2.6 | 10.4 | 0.00 | 0.00 | 0.00 | 40 | 1011.9 |
| 20260508180904 | 69 | 182 | 3.5 | 7.0 | 0.00 | 0.00 | 0.00 | 41 | 1011.8 |
| 20260508180804 | 69 | 156 | 5.2 | 7.8 | 0.00 | 0.00 | 0.00 | 42 | 1011.8 |
| 20260508180700 | 69 | 207 | 3.5 | 7.8 | 0.00 | 0.00 | 0.00 | 41 | 1011.8 |
| 20260508180558 | 69 | 234 | 0.9 | 7.8 | 0.00 | 0.00 | 0.00 | 44 | 1011.8 |
| 20260508180500 | 69 | 5 | 0.0 | 7.8 | 0.00 | 0.00 | 0.00 | 41 | 1011.9 |
| 20260508180400 | 69 | 329 | 2.6 | 7.8 | 0.00 | 0.00 | 0.00 | 40 | 1011.9 |
| 20260508180300 | 69 | 244 | 0.0 | 7.8 | 0.00 | 0.00 | 0.00 | 40 | 1011.9 |
| 20260508180200 | 69 | 172 | 2.6 | 9.6 | 0.00 | 0.00 | 0.00 | 39 | 1012.0 |
| 20260508180059 | 69 | 228 | 0.9 | 9.6 | 0.00 | 0.00 | 0.00 | 40 | 1012.0 |
| 20260508175859 | 69 | 196 | 1.7 | 9.6 | 0.00 | 0.00 | 0.00 | 38 | 1012.1 |
| 20260508175800 | 69 | 236 | 4.3 | 9.6 | 0.00 | 0.00 | 0.00 | 38 | 1012.0 |
| 20260508175659 | 70 | 278 | 1.7 | 9.6 | 0.00 | 0.00 | 0.00 | 37 | 1012.1 |
| 20260508175459 | 70 | 327 | 0.9 | 9.6 | 0.00 | 0.00 | 0.00 | 39 | 1012.1 |
| 20260508175400 | 70 | 217 | 1.7 | 9.6 | 0.00 | 0.00 | 0.00 | 37 | 1012.0 |
| 20260508175259 | 71 | 222 | 4.3 | 9.6 | 0.00 | 0.00 | 0.00 | 38 | 1012.0 |
| 20260508175200 | 71 | 195 | 7.0 | 9.6 | 0.00 | 0.00 | 0.00 | 38 | 1012.0 |
| 20260508175100 | 71 | 171 | 5.2 | 8.7 | 0.00 | 0.00 | 0.00 | 38 | 1011.9 |
| 20260508174959 | 71 | 109 | 6.1 | 6.1 | 0.00 | 0.00 | 0.00 | 39 | 1012.0 |
| 20260508174901 | 71 | 201 | 1.7 | 6.1 | 0.00 | 0.00 | 0.00 | 40 | 1012.0 |
| 20260508174801 | 71 | 256 | 3.5 | 6.1 | 0.00 | 0.00 | 0.00 | 43 | 1012.0 |
| 20260508174700 | 71 | 225 | 2.6 | 6.1 | 0.00 | 0.00 | 0.00 | 43 | 1012.0 |
| 20260508174600 | 71 | 350 | 0.9 | 6.1 | 0.00 | 0.00 | 0.00 | 43 | 1011.9 |
| 20260508174459 | 71 | 302 | 0.9 | 6.1 | 0.00 | 0.00 | 0.00 | 42 | 1012.0 |
| 20260508174400 | 71 | 250 | 3.5 | 6.1 | 0.00 | 0.00 | 0.00 | 42 | 1012.0 |
| 20260508174302 | 71 | 182 | 0.9 | 6.1 | 0.00 | 0.00 | 0.00 | 44 | 1012.2 |
| 20260508174200 | 71 | 211 | 0.9 | 6.1 | 0.00 | 0.00 | 0.00 | 41 | 1012.1 |
| 20260508174100 | 71 | 194 | 2.6 | 6.1 | 0.00 | 0.00 | 0.00 | 44 | 1012.2 |
| 20260508174002 | 70 | 172 | 2.6 | 6.1 | 0.00 | 0.00 | 0.00 | 44 | 1012.1 |
| 20260508173859 | 70 | 169 | 3.5 | 5.2 | 0.00 | 0.00 | 0.00 | 46 | 1012.1 |
| 20260508173801 | 70 | 138 | 2.6 | 5.2 | 0.00 | 0.00 | 0.00 | 47 | 1012.2 |
| 20260508173659 | 70 | 175 | 0.9 | 5.2 | 0.00 | 0.00 | 0.00 | 43 | 1012.2 |
| 20260508173602 | 70 | 205 | 2.6 | 5.2 | 0.00 | 0.00 | 0.00 | 42 | 1012.2 |
| 20260508173401 | 70 | 188 | 1.7 | 7.0 | 0.00 | 0.00 | 0.00 | 44 | 1012.2 |
| 20260508173259 | 70 | 188 | 1.7 | 7.0 | 0.00 | 0.00 | 0.00 | 42 | 1012.3 |
| 20260508173200 | 69 | 185 | 1.7 | 7.0 | 0.00 | 0.00 | 0.00 | 44 | 1012.3 |
| 20260508173059 | 69 | 267 | 1.7 | 7.0 | 0.00 | 0.00 | 0.00 | 44 | 1012.3 |
| 20260508172959 | 69 | 192 | 4.3 | 7.0 | 0.00 | 0.00 | 0.00 | 44 | 1012.3 |
| 20260508172800 | 69 | 207 | 0.9 | 7.0 | 0.00 | 0.00 | 0.00 | 41 | 1012.2 |
| 20260508172659 | 70 | 279 | 1.7 | 7.0 | 0.00 | 0.00 | 0.00 | 41 | 1012.3 |
| 20260508172559 | 70 | 205 | 3.5 | 7.0 | 0.00 | 0.00 | 0.00 | 42 | 1012.3 |
| 20260508172301 | 70 | 209 | 1.7 | 6.1 | 0.00 | 0.00 | 0.00 | 43 | 1012.4 |
| 20260508172159 | 70 | 121 | 2.6 | 6.1 | 0.00 | 0.00 | 0.00 | 44 | 1012.3 |
| 20260508172100 | 70 | 144 | 0.0 | 7.8 | 0.00 | 0.00 | 0.00 | 45 | 1012.4 |
| 20260508172001 | 70 | 148 | 0.0 | 7.8 | 0.00 | 0.00 | 0.00 | 45 | 1012.4 |
| 20260508171859 | 70 | 176 | 2.6 | 7.8 | 0.00 | 0.00 | 0.00 | 42 | 1012.5 |
| 20260508171801 | 70 | 130 | 1.7 | 7.8 | 0.00 | 0.00 | 0.00 | 42 | 1012.5 |
| 20260508171700 | 69 | 132 | 2.6 | 7.8 | 0.00 | 0.00 | 0.00 | 44 | 1012.6 |
| 20260508171603 | 69 | 18 | 1.7 | 8.7 | 0.00 | 0.00 | 0.00 | 46 | 1012.5 |
| 20260508171500 | 69 | 340 | 1.7 | 8.7 | 0.00 | 0.00 | 0.00 | 43 | 1012.5 |
| 20260508171259 | 69 | 120 | 2.6 | 8.7 | 0.00 | 0.00 | 0.00 | 44 | 1012.5 |
| 20260508171159 | 69 | 121 | 7.8 | 8.7 | 0.00 | 0.00 | 0.00 | 44 | 1012.6 |
| 20260508171059 | 69 | 229 | 4.3 | 8.7 | 0.00 | 0.00 | 0.00 | 43 | 1012.6 |
| 20260508170959 | 69 | 196 | 2.6 | 8.7 | 0.00 | 0.00 | 0.00 | 42 | 1012.6 |
| 20260508170900 | 69 | 179 | 2.6 | 8.7 | 0.00 | 0.00 | 0.00 | 41 | 1012.6 |
| 20260508170701 | 69 | 165 | 1.7 | 7.8 | 0.00 | 0.00 | 0.00 | 44 | 1012.6 |
| 20260508170600 | 69 | 342 | 1.7 | 7.8 | 0.00 | 0.00 | 0.00 | 45 | 1012.6 |
| 20260508170501 | 69 | 250 | 1.7 | 6.1 | 0.00 | 0.00 | 0.00 | 44 | 1012.7 |
| 20260508170359 | 69 | 249 | 0.9 | 8.7 | 0.00 | 0.00 | 0.00 | 44 | 1012.7 |
| 20260508170259 | 69 | 240 | 0.9 | 8.7 | 0.00 | 0.00 | 0.00 | 42 | 1012.7 |
| 20260508170200 | 69 | 262 | 3.5 | 8.7 | 0.00 | 0.00 | 0.00 | 45 | 1012.8 |
| 20260508170059 | 69 | 198 | 1.7 | 8.7 | 0.00 | 0.00 | 0.00 | 45 | 1012.9 |
| 20260508165859 | 68 | 166 | 4.3 | 8.7 | 0.00 | 0.00 | 0.00 | 44 | 1012.9 |
| 20260508165800 | 68 | 182 | 4.3 | 8.7 | 0.00 | 0.00 | 0.00 | 44 | 1013.0 |
| 20260508165601 | 68 | 143 | 4.3 | 8.7 | 0.00 | 0.00 | 0.00 | 43 | 1013.0 |
| 20260508165459 | 68 | 264 | 1.7 | 8.7 | 0.00 | 0.00 | 0.00 | 45 | 1013.1 |
| 20260508165300 | 68 | 315 | 1.7 | 11.3 | 0.00 | 0.00 | 0.00 | 46 | 1013.1 |
| 20260508165159 | 68 | 200 | 3.5 | 11.3 | 0.00 | 0.00 | 0.00 | 46 | 1013.1 |
| 20260508165059 | 68 | 193 | 2.6 | 11.3 | 0.00 | 0.00 | 0.00 | 46 | 1013.1 |
| 20260508164959 | 68 | 205 | 2.6 | 11.3 | 0.00 | 0.00 | 0.00 | 46 | 1013.2 |
| 20260508164900 | 68 | 170 | 3.5 | 11.3 | 0.00 | 0.00 | 0.00 | 44 | 1013.2 |
| 20260508164800 | 68 | 292 | 2.6 | 11.3 | 0.00 | 0.00 | 0.00 | 44 | 1013.2 |
| 20260508164659 | 68 | 348 | 1.7 | 11.3 | 0.00 | 0.00 | 0.00 | 43 | 1013.1 |
| 20260508164601 | 68 | 279 | 5.2 | 11.3 | 0.00 | 0.00 | 0.00 | 43 | 1013.1 |
| 20260508164259 | 68 | 266 | 10.4 | 10.4 | 0.00 | 0.00 | 0.00 | 45 | 1013.3 |
| 20260508164200 | 68 | 198 | 2.6 | 10.4 | 0.00 | 0.00 | 0.00 | 44 | 1013.3 |
| 20260508164059 | 68 | 215 | 1.7 | 10.4 | 0.00 | 0.00 | 0.00 | 44 | 1013.4 |
| 20260508164000 | 68 | 38 | 1.7 | 10.4 | 0.00 | 0.00 | 0.00 | 44 | 1013.4 |
| 20260508163859 | 68 | 186 | 2.6 | 10.4 | 0.00 | 0.00 | 0.00 | 44 | 1013.5 |
| 20260508163800 | 68 | 172 | 4.3 | 10.4 | 0.00 | 0.00 | 0.00 | 45 | 1013.6 |
| 20260508163659 | 68 | 191 | 2.6 | 4.3 | 0.00 | 0.00 | 0.00 | 45 | 1013.6 |
| 20260508163600 | 68 | 186 | 0.9 | 7.0 | 0.00 | 0.00 | 0.00 | 48 | 1013.5 |
| 20260508163459 | 68 | 167 | 0.9 | 7.0 | 0.00 | 0.00 | 0.00 | 46 | 1013.6 |
| 20260508163359 | 68 | 244 | 2.6 | 7.0 | 0.00 | 0.00 | 0.00 | 47 | 1013.6 |
| 20260508163258 | 67 | 248 | 1.7 | 7.8 | 0.00 | 0.00 | 0.00 | 50 | 1013.6 |
| 20260508163200 | 67 | 215 | 0.9 | 12.2 | 0.00 | 0.00 | 0.00 | 50 | 1013.6 |
| 20260508163100 | 67 | 270 | 0.9 | 12.2 | 0.00 | 0.00 | 0.00 | 52 | 1013.7 |
| 20260508163001 | 67 | 64 | 0.0 | 12.2 | 0.00 | 0.00 | 0.00 | 49 | 1013.6 |
| 20260508162900 | 67 | 297 | 1.7 | 12.2 | 0.00 | 0.00 | 0.00 | 48 | 1013.7 |
| 20260508162659 | 67 | 188 | 6.1 | 12.2 | 0.00 | 0.00 | 0.00 | 47 | 1013.7 |
| 20260508162600 | 67 | 263 | 2.6 | 12.2 | 0.00 | 0.00 | 0.00 | 46 | 1013.8 |
| 20260508162359 | 67 | 222 | 3.5 | 12.2 | 0.00 | 0.00 | 0.00 | 45 | 1013.9 |
| 20260508162259 | 67 | 189 | 2.6 | 10.4 | 0.00 | 0.00 | 0.00 | 45 | 1013.8 |
| 20260508162201 | 67 | 300 | 4.3 | 10.4 | 0.00 | 0.00 | 0.00 | 45 | 1013.8 |
| 20260508162059 | 67 | 266 | 3.5 | 10.4 | 0.00 | 0.00 | 0.00 | 44 | 1013.9 |
| 20260508162000 | 67 | 201 | 4.3 | 10.4 | 0.00 | 0.00 | 0.00 | 44 | 1013.8 |
| 20260508161900 | 67 | 219 | 3.5 | 8.7 | 0.00 | 0.00 | 0.00 | 45 | 1013.8 |
| 20260508161759 | 67 | 268 | 5.2 | 8.7 | 0.00 | 0.00 | 0.00 | 45 | 1013.9 |
| 20260508161659 | 67 | 232 | 2.6 | 9.6 | 0.00 | 0.00 | 0.00 | 48 | 1013.9 |
| 20260508161600 | 67 | 325 | 1.7 | 8.7 | 0.00 | 0.00 | 0.00 | 46 | 1013.9 |
| 20260508161459 | 67 | 186 | 3.5 | 8.7 | 0.00 | 0.00 | 0.00 | 47 | 1013.8 |
| 20260508161259 | 67 | 202 | 2.6 | 8.7 | 0.00 | 0.00 | 0.00 | 46 | 1013.8 |
| 20260508161159 | 67 | 162 | 3.5 | 8.7 | 0.00 | 0.00 | 0.00 | 46 | 1013.9 |
| 20260508161100 | 67 | 219 | 4.3 | 8.7 | 0.00 | 0.00 | 0.00 | 47 | 1013.9 |
| 20260508161000 | 67 | 188 | 2.6 | 8.7 | 0.00 | 0.00 | 0.00 | 45 | 1013.8 |
| 20260508160800 | 67 | 317 | 1.7 | 8.7 | 0.00 | 0.00 | 0.00 | 48 | 1013.9 |
| 20260508160659 | 67 | 196 | 1.7 | 8.7 | 0.00 | 0.00 | 0.00 | 47 | 1013.9 |
| 20260508160601 | 67 | 161 | 4.3 | 8.7 | 0.00 | 0.00 | 0.00 | 46 | 1013.9 |
| 20260508160359 | 67 | 229 | 0.9 | 7.0 | 0.00 | 0.00 | 0.00 | 47 | 1013.9 |
| 20260508160200 | 67 | 175 | 0.9 | 7.0 | 0.00 | 0.00 | 0.00 | 49 | 1014.0 |
| 20260508160059 | 67 | 141 | 0.0 | 7.0 | 0.00 | 0.00 | 0.00 | 49 | 1013.8 |
| 20260508160005 | 67 | 331 | 2.6 | 7.0 | 0.00 | 0.00 | 0.00 | 48 | 1013.8 |
| 20260508155900 | 67 | 126 | 0.0 | 7.0 | 0.00 | 0.00 | 0.00 | 48 | 1013.9 |
| 20260508155759 | 67 | 223 | 2.6 | 7.0 | 0.00 | 0.00 | 0.00 | 46 | 1013.9 |
| 20260508155500 | 67 | 235 | 0.9 | 6.1 | 0.00 | 0.00 | 0.00 | 49 | 1013.9 |
| 20260508155401 | 66 | 253 | 0.9 | 6.1 | 0.00 | 0.00 | 0.00 | 50 | 1013.9 |
| 20260508155258 | 66 | 102 | 1.7 | 6.1 | 0.00 | 0.00 | 0.00 | 47 | 1013.9 |
| 20260508155200 | 66 | 209 | 3.5 | 6.1 | 0.00 | 0.00 | 0.00 | 46 | 1014.0 |
| 20260508155100 | 66 | 189 | 0.9 | 6.1 | 0.00 | 0.00 | 0.00 | 47 | 1014.1 |
| 20260508154859 | 66 | 302 | 2.6 | 7.0 | 0.00 | 0.00 | 0.00 | 48 | 1014.0 |
| 20260508154759 | 66 | 255 | 1.7 | 7.8 | 0.00 | 0.00 | 0.00 | 50 | 1014.0 |
| 20260508154659 | 66 | 200 | 0.9 | 7.8 | 0.00 | 0.00 | 0.00 | 48 | 1014.0 |
| 20260508154600 | 66 | 257 | 3.5 | 7.8 | 0.00 | 0.00 | 0.00 | 47 | 1014.1 |
| 20260508154501 | 66 | 342 | 0.9 | 7.8 | 0.00 | 0.00 | 0.00 | 47 | 1014.1 |
| 20260508154401 | 66 | 162 | 3.5 | 7.8 | 0.00 | 0.00 | 0.00 | 48 | 1014.1 |
| 20260508154302 | 66 | 178 | 2.6 | 7.8 | 0.00 | 0.00 | 0.00 | 46 | 1014.1 |
| 20260508154159 | 66 | 172 | 1.7 | 10.4 | 0.00 | 0.00 | 0.00 | 48 | 1014.1 |
| 20260508154059 | 66 | 123 | 1.7 | 10.4 | 0.00 | 0.00 | 0.00 | 47 | 1014.1 |
| 20260508153959 | 66 | 232 | 4.3 | 10.4 | 0.00 | 0.00 | 0.00 | 47 | 1014.2 |
| 20260508153901 | 66 | 171 | 5.2 | 10.4 | 0.00 | 0.00 | 0.00 | 51 | 1014.2 |
| 20260508153702 | 65 | 191 | 0.9 | 10.4 | 0.00 | 0.00 | 0.00 | 48 | 1014.2 |
| 20260508153600 | 65 | 171 | 1.7 | 10.4 | 0.00 | 0.00 | 0.00 | 49 | 1014.2 |
| 20260508153500 | 65 | 76 | 0.0 | 10.4 | 0.00 | 0.00 | 0.00 | 49 | 1014.2 |
| 20260508153401 | 65 | 130 | 0.0 | 10.4 | 0.00 | 0.00 | 0.00 | 47 | 1014.2 |
| 20260508153300 | 65 | 213 | 7.0 | 10.4 | 0.00 | 0.00 | 0.00 | 49 | 1014.2 |
| 20260508153201 | 65 | 214 | 0.9 | 9.6 | 0.00 | 0.00 | 0.00 | 48 | 1014.2 |
| 20260508153059 | 65 | 177 | 2.6 | 10.4 | 0.00 | 0.00 | 0.00 | 50 | 1014.2 |
| 20260508152959 | 65 | 306 | 0.9 | 10.4 | 0.00 | 0.00 | 0.00 | 49 | 1014.2 |
| 20260508152901 | 65 | 274 | 1.7 | 10.4 | 0.00 | 0.00 | 0.00 | 48 | 1014.3 |
| 20260508152759 | 65 | 164 | 3.5 | 10.4 | 0.00 | 0.00 | 0.00 | 47 | 1014.3 |
| 20260508152701 | 65 | 271 | 3.5 | 10.4 | 0.00 | 0.00 | 0.00 | 48 | 1014.2 |
| 20260508152601 | 65 | 186 | 3.5 | 10.4 | 0.00 | 0.00 | 0.00 | 50 | 1014.2 |
| 20260508152501 | 65 | 165 | 1.7 | 10.4 | 0.00 | 0.00 | 0.00 | 48 | 1014.3 |
| 20260508152300 | 65 | 332 | 4.3 | 10.4 | 0.00 | 0.00 | 0.00 | 47 | 1014.3 |
| 20260508152059 | 65 | 167 | 2.6 | 13.0 | 0.00 | 0.00 | 0.00 | 49 | 1014.3 |
| 20260508151959 | 65 | 188 | 2.6 | 13.0 | 0.00 | 0.00 | 0.00 | 48 | 1014.3 |
| 20260508151859 | 65 | 208 | 2.6 | 13.0 | 0.00 | 0.00 | 0.00 | 48 | 1014.3 |
| 20260508151759 | 65 | 190 | 2.6 | 13.0 | 0.00 | 0.00 | 0.00 | 47 | 1014.3 |
| 20260508151601 | 65 | 211 | 1.7 | 13.0 | 0.00 | 0.00 | 0.00 | 48 | 1014.3 |
| 20260508151401 | 65 | 217 | 3.5 | 13.0 | 0.00 | 0.00 | 0.00 | 48 | 1014.3 |
| 20260508151259 | 65 | 173 | 0.9 | 13.0 | 0.00 | 0.00 | 0.00 | 47 | 1014.3 |
| 20260508151201 | 65 | 151 | 1.7 | 8.7 | 0.00 | 0.00 | 0.00 | 47 | 1014.3 |
| 20260508150900 | 65 | 215 | 1.7 | 7.0 | 0.00 | 0.00 | 0.00 | 49 | 1014.4 |
| 20260508150802 | 64 | 270 | 0.9 | 7.0 | 0.00 | 0.00 | 0.00 | 50 | 1014.4 |
| 20260508150600 | 64 | 302 | 1.7 | 7.0 | 0.00 | 0.00 | 0.00 | 50 | 1014.4 |
| 20260508150501 | 64 | 220 | 2.6 | 7.0 | 0.00 | 0.00 | 0.00 | 48 | 1014.5 |
| 20260508150300 | 64 | 177 | 6.1 | 6.1 | 0.00 | 0.00 | 0.00 | 49 | 1014.4 |
| 20260508150159 | 64 | 355 | 0.9 | 7.0 | 0.00 | 0.00 | 0.00 | 51 | 1014.4 |
| 20260508150100 | 64 | 212 | 2.6 | 7.0 | 0.00 | 0.00 | 0.00 | 51 | 1014.5 |
| 20260508145959 | 64 | 208 | 0.9 | 7.0 | 0.00 | 0.00 | 0.00 | 51 | 1014.5 |
| 20260508145759 | 63 | 236 | 2.6 | 7.0 | 0.00 | 0.00 | 0.00 | 49 | 1014.4 |
| 20260508145659 | 63 | 250 | 0.0 | 7.0 | 0.00 | 0.00 | 0.00 | 50 | 1014.4 |
| 20260508145559 | 63 | 244 | 2.6 | 7.0 | 0.00 | 0.00 | 0.00 | 49 | 1014.5 |
| 20260508145500 | 63 | 185 | 2.6 | 7.0 | 0.00 | 0.00 | 0.00 | 50 | 1014.4 |
| 20260508145400 | 63 | 218 | 1.7 | 7.0 | 0.00 | 0.00 | 0.00 | 51 | 1014.4 |
| 20260508145300 | 63 | 306 | 0.9 | 7.0 | 0.00 | 0.00 | 0.00 | 50 | 1014.4 |
| 20260508145159 | 63 | 298 | 3.5 | 10.4 | 0.00 | 0.00 | 0.00 | 48 | 1014.5 |
| 20260508145100 | 63 | 265 | 1.7 | 10.4 | 0.00 | 0.00 | 0.00 | 51 | 1014.5 |
| 20260508145001 | 63 | 182 | 4.3 | 10.4 | 0.00 | 0.00 | 0.00 | 51 | 1014.5 |
| 20260508144859 | 63 | 348 | 2.6 | 10.4 | 0.00 | 0.00 | 0.00 | 50 | 1014.6 |
| 20260508144658 | 63 | 173 | 2.6 | 10.4 | 0.00 | 0.00 | 0.00 | 49 | 1014.5 |
| 20260508144600 | 63 | 265 | 1.7 | 10.4 | 0.00 | 0.00 | 0.00 | 52 | 1014.5 |
| 20260508144400 | 63 | 223 | 4.3 | 10.4 | 0.00 | 0.00 | 0.00 | 49 | 1014.5 |
| 20260508144200 | 63 | 217 | 3.5 | 8.7 | 0.00 | 0.00 | 0.00 | 49 | 1014.5 |
| 20260508144000 | 63 | 179 | 3.5 | 8.7 | 0.00 | 0.00 | 0.00 | 49 | 1014.5 |
| 20260508143759 | 63 | 320 | 3.5 | 5.2 | 0.00 | 0.00 | 0.00 | 50 | 1014.5 |
| 20260508143559 | 62 | 138 | 3.5 | 5.2 | 0.00 | 0.00 | 0.00 | 49 | 1014.4 |
| 20260508143500 | 62 | 244 | 2.6 | 5.2 | 0.00 | 0.00 | 0.00 | 51 | 1014.5 |
| 20260508143401 | 62 | 168 | 0.9 | 5.2 | 0.00 | 0.00 | 0.00 | 52 | 1014.5 |
| 20260508143201 | 62 | 309 | 1.7 | 5.2 | 0.00 | 0.00 | 0.00 | 52 | 1014.4 |
| 20260508143100 | 62 | 287 | 1.7 | 5.2 | 0.00 | 0.00 | 0.00 | 51 | 1014.5 |
| 20260508142901 | 62 | 184 | 5.2 | 5.2 | 0.00 | 0.00 | 0.00 | 51 | 1014.5 |
| 20260508142659 | 62 | 163 | 1.7 | 5.2 | 0.00 | 0.00 | 0.00 | 51 | 1014.6 |
| 20260508142501 | 61 | 168 | 1.7 | 5.2 | 0.00 | 0.00 | 0.00 | 52 | 1014.5 |
| 20260508142400 | 61 | 165 | 5.2 | 5.2 | 0.00 | 0.00 | 0.00 | 52 | 1014.6 |
| 20260508142300 | 61 | 171 | 3.5 | 5.2 | 0.00 | 0.00 | 0.00 | 51 | 1014.5 |
| 20260508142200 | 61 | 188 | 2.6 | 5.2 | 0.00 | 0.00 | 0.00 | 52 | 1014.6 |
| 20260508142100 | 61 | 188 | 0.9 | 5.2 | 0.00 | 0.00 | 0.00 | 53 | 1014.5 |
| 20260508142000 | 61 | 255 | 0.9 | 5.2 | 0.00 | 0.00 | 0.00 | 52 | 1014.6 |
| 20260508141859 | 61 | 269 | 0.0 | 7.8 | 0.00 | 0.00 | 0.00 | 51 | 1014.6 |
| 20260508141700 | 61 | 165 | 1.7 | 7.8 | 0.00 | 0.00 | 0.00 | 52 | 1014.6 |
| 20260508141459 | 61 | 221 | 1.7 | 7.8 | 0.00 | 0.00 | 0.00 | 52 | 1014.6 |
| 20260508141400 | 61 | 290 | 1.7 | 7.8 | 0.00 | 0.00 | 0.00 | 52 | 1014.6 |
| 20260508141203 | 60 | 101 | 0.9 | 7.8 | 0.00 | 0.00 | 0.00 | 50 | 1014.7 |
| 20260508141101 | 60 | 228 | 4.3 | 5.2 | 0.00 | 0.00 | 0.00 | 52 | 1014.6 |
| 20260508141000 | 60 | 182 | 2.6 | 5.2 | 0.00 | 0.00 | 0.00 | 53 | 1014.7 |
| 20260508140859 | 60 | 190 | 0.9 | 5.2 | 0.00 | 0.00 | 0.00 | 53 | 1014.6 |
| 20260508140800 | 60 | 244 | 0.9 | 5.2 | 0.00 | 0.00 | 0.00 | 53 | 1014.6 |
| 20260508140500 | 60 | 238 | 0.9 | 8.7 | 0.00 | 0.00 | 0.00 | 53 | 1014.7 |
| 20260508140400 | 60 | 145 | 2.6 | 8.7 | 0.00 | 0.00 | 0.00 | 52 | 1014.7 |
| 20260508140200 | 60 | 247 | 1.7 | 8.7 | 0.00 | 0.00 | 0.00 | 52 | 1014.7 |
| 20260508140100 | 60 | 202 | 1.7 | 8.7 | 0.00 | 0.00 | 0.00 | 51 | 1014.7 |
| 20260508140002 | 60 | 160 | 1.7 | 8.7 | 0.00 | 0.00 | 0.00 | 52 | 1014.8 |
| 20260508135859 | 60 | 208 | 3.5 | 8.7 | 0.00 | 0.00 | 0.00 | 52 | 1014.8 |
| 20260508135759 | 60 | 143 | 0.9 | 8.7 | 0.00 | 0.00 | 0.00 | 52 | 1014.7 |
| 20260508135701 | 60 | 225 | 1.7 | 8.7 | 0.00 | 0.00 | 0.00 | 52 | 1014.8 |
| 20260508135500 | 59 | 166 | 5.2 | 7.0 | 0.00 | 0.00 | 0.00 | 54 | 1014.7 |
| 20260508135359 | 59 | 150 | 0.9 | 7.0 | 0.00 | 0.00 | 0.00 | 55 | 1014.6 |
| 20260508135259 | 59 | 139 | 2.6 | 7.0 | 0.00 | 0.00 | 0.00 | 55 | 1014.7 |
| 20260508135201 | 59 | 161 | 0.9 | 7.0 | 0.00 | 0.00 | 0.00 | 55 | 1014.7 |
| 20260508135100 | 59 | 118 | 0.0 | 7.0 | 0.00 | 0.00 | 0.00 | 54 | 1014.7 |
| 20260508134959 | 59 | 196 | 2.6 | 7.0 | 0.00 | 0.00 | 0.00 | 54 | 1014.7 |
| 20260508134759 | 59 | 171 | 1.7 | 7.0 | 0.00 | 0.00 | 0.00 | 55 | 1014.8 |
| 20260508134700 | 59 | 23 | 0.0 | 7.0 | 0.00 | 0.00 | 0.00 | 54 | 1014.8 |
| 20260508134559 | 58 | 273 | 1.7 | 7.0 | 0.00 | 0.00 | 0.00 | 56 | 1014.8 |
| 20260508134500 | 58 | 165 | 0.0 | 7.0 | 0.00 | 0.00 | 0.00 | 55 | 1014.7 |
| 20260508134400 | 58 | 115 | 0.9 | 7.0 | 0.00 | 0.00 | 0.00 | 56 | 1014.7 |
| 20260508134300 | 58 | 188 | 0.0 | 7.0 | 0.00 | 0.00 | 0.00 | 54 | 1014.7 |
| 20260508134159 | 58 | 207 | 0.0 | 7.0 | 0.00 | 0.00 | 0.00 | 54 | 1014.7 |
| 20260508134059 | 58 | 198 | 2.6 | 7.0 | 0.00 | 0.00 | 0.00 | 54 | 1014.7 |
| 20260508134000 | 58 | 288 | 1.7 | 7.0 | 0.00 | 0.00 | 0.00 | 54 | 1014.7 |
| 20260508133859 | 58 | 168 | 1.7 | 7.0 | 0.00 | 0.00 | 0.00 | 56 | 1014.7 |
| 20260508133759 | 58 | 181 | 0.0 | 7.0 | 0.00 | 0.00 | 0.00 | 56 | 1014.7 |
| 20260508133659 | 57 | 185 | 1.7 | 7.0 | 0.00 | 0.00 | 0.00 | 56 | 1014.7 |
| 20260508133602 | 57 | 173 | 0.0 | 7.0 | 0.00 | 0.00 | 0.00 | 55 | 1014.7 |
| 20260508133459 | 57 | 162 | 3.5 | 7.0 | 0.00 | 0.00 | 0.00 | 55 | 1014.7 |
| 20260508133401 | 57 | 206 | 0.0 | 7.0 | 0.00 | 0.00 | 0.00 | 55 | 1014.7 |
| 20260508133259 | 57 | 32 | 2.6 | 7.0 | 0.00 | 0.00 | 0.00 | 55 | 1014.7 |
| 20260508133200 | 57 | 311 | 1.7 | 5.2 | 0.00 | 0.00 | 0.00 | 54 | 1014.7 |
| 20260508133059 | 57 | 177 | 3.5 | 5.2 | 0.00 | 0.00 | 0.00 | 55 | 1014.7 |
| 20260508133001 | 57 | 37 | 0.9 | 5.2 | 0.00 | 0.00 | 0.00 | 55 | 1014.7 |
| 20260508132859 | 57 | 350 | 2.6 | 5.2 | 0.00 | 0.00 | 0.00 | 55 | 1014.8 |
| 20260508132800 | 57 | 205 | 0.9 | 5.2 | 0.00 | 0.00 | 0.00 | 54 | 1014.7 |
| 20260508132659 | 57 | 105 | 0.9 | 6.1 | 0.00 | 0.00 | 0.00 | 54 | 1014.7 |
| 20260508132559 | 57 | 303 | 4.3 | 6.1 | 0.00 | 0.00 | 0.00 | 55 | 1014.8 |
| 20260508132458 | 57 | 133 | 1.7 | 6.1 | 0.00 | 0.00 | 0.00 | 54 | 1014.8 |
| 20260508132400 | 56 | 314 | 0.9 | 6.1 | 0.00 | 0.00 | 0.00 | 54 | 1014.8 |
| 20260508132301 | 56 | 319 | 2.6 | 6.1 | 0.00 | 0.00 | 0.00 | 55 | 1014.8 |
| 20260508132159 | 56 | 250 | 4.3 | 6.1 | 0.00 | 0.00 | 0.00 | 56 | 1014.8 |
| 20260508132101 | 56 | 302 | 2.6 | 6.1 | 0.00 | 0.00 | 0.00 | 55 | 1014.7 |
| 20260508132000 | 56 | 275 | 1.7 | 5.2 | 0.00 | 0.00 | 0.00 | 56 | 1014.8 |
| 20260508131759 | 56 | 187 | 1.7 | 5.2 | 0.00 | 0.00 | 0.00 | 55 | 1014.8 |
| 20260508131700 | 56 | 190 | 2.6 | 5.2 | 0.00 | 0.00 | 0.00 | 55 | 1014.8 |
| 20260508131559 | 56 | 171 | 1.7 | 7.0 | 0.00 | 0.00 | 0.00 | 55 | 1014.8 |
| 20260508131500 | 56 | 192 | 3.5 | 7.0 | 0.00 | 0.00 | 0.00 | 55 | 1014.8 |
| 20260508131359 | 56 | 310 | 0.9 | 7.0 | 0.00 | 0.00 | 0.00 | 55 | 1014.8 |
| 20260508131300 | 56 | 201 | 1.7 | 7.0 | 0.00 | 0.00 | 0.00 | 56 | 1014.8 |
| 20260508131200 | 56 | 173 | 1.7 | 7.0 | 0.00 | 0.00 | 0.00 | 57 | 1014.8 |
| 20260508131100 | 56 | 305 | 0.0 | 7.0 | 0.00 | 0.00 | 0.00 | 56 | 1014.7 |
| 20260508131000 | 55 | 155 | 0.9 | 7.0 | 0.00 | 0.00 | 0.00 | 56 | 1014.7 |
| 20260508130859 | 55 | 205 | 2.6 | 7.0 | 0.00 | 0.00 | 0.00 | 57 | 1014.8 |
| 20260508130759 | 55 | 215 | 7.0 | 7.0 | 0.00 | 0.00 | 0.00 | 57 | 1014.7 |
| 20260508130500 | 55 | 256 | 0.9 | 5.2 | 0.00 | 0.00 | 0.00 | 58 | 1014.8 |
| 20260508130400 | 55 | 206 | 0.9 | 5.2 | 0.00 | 0.00 | 0.00 | 56 | 1014.7 |
| 20260508130301 | 55 | 207 | 1.7 | 5.2 | 0.00 | 0.00 | 0.00 | 57 | 1014.7 |
| 20260508130159 | 55 | 281 | 1.7 | 5.2 | 0.00 | 0.00 | 0.00 | 57 | 1014.8 |
| 20260508125959 | 55 | 166 | 0.9 | 7.0 | 0.00 | 0.00 | 0.00 | 57 | 1014.7 |
| 20260508125900 | 54 | 202 | 0.9 | 7.0 | 0.00 | 0.00 | 0.00 | 58 | 1014.7 |
| 20260508125759 | 54 | 192 | 1.7 | 7.0 | 0.00 | 0.00 | 0.00 | 57 | 1014.7 |
| 20260508125700 | 54 | 165 | 0.9 | 7.0 | 0.00 | 0.00 | 0.00 | 57 | 1014.8 |
| 20260508125559 | 54 | 279 | 3.5 | 7.0 | 0.00 | 0.00 | 0.00 | 57 | 1014.7 |
| 20260508125501 | 54 | 325 | 0.9 | 7.0 | 0.00 | 0.00 | 0.00 | 57 | 1014.8 |
| 20260508125359 | 54 | 207 | 3.5 | 7.0 | 0.00 | 0.00 | 0.00 | 56 | 1014.7 |
| 20260508125259 | 54 | 207 | 2.6 | 7.0 | 0.00 | 0.00 | 0.00 | 56 | 1014.8 |
| 20260508125200 | 54 | 177 | 5.2 | 7.0 | 0.00 | 0.00 | 0.00 | 57 | 1014.7 |
| 20260508125100 | 54 | 271 | 6.1 | 7.0 | 0.00 | 0.00 | 0.00 | 57 | 1014.7 |
| 20260508125000 | 54 | 265 | 0.9 | 4.3 | 0.00 | 0.00 | 0.00 | 58 | 1014.6 |
| 20260508124859 | 54 | 271 | 1.7 | 4.3 | 0.00 | 0.00 | 0.00 | 58 | 1014.7 |
| 20260508124801 | 54 | 220 | 1.7 | 4.3 | 0.00 | 0.00 | 0.00 | 59 | 1014.7 |
| 20260508124659 | 54 | 298 | 0.0 | 4.3 | 0.00 | 0.00 | 0.00 | 59 | 1014.6 |
| 20260508124459 | 54 | 173 | 0.9 | 4.3 | 0.00 | 0.00 | 0.00 | 58 | 1014.6 |
| 20260508124400 | 54 | 182 | 0.0 | 4.3 | 0.00 | 0.00 | 0.00 | 58 | 1014.7 |
| 20260508124259 | 53 | 186 | 1.7 | 4.3 | 0.00 | 0.00 | 0.00 | 59 | 1014.6 |
| 20260508124200 | 53 | 181 | 0.0 | 4.3 | 0.00 | 0.00 | 0.00 | 59 | 1014.6 |
| 20260508124059 | 53 | 113 | 1.7 | 4.3 | 0.00 | 0.00 | 0.00 | 58 | 1014.6 |
| 20260508124000 | 53 | 213 | 0.9 | 4.3 | 0.00 | 0.00 | 0.00 | 58 | 1014.7 |
| 20260508123900 | 53 | 313 | 0.9 | 7.0 | 0.00 | 0.00 | 0.00 | 59 | 1014.6 |
| 20260508123759 | 53 | 206 | 2.6 | 7.0 | 0.00 | 0.00 | 0.00 | 58 | 1014.6 |
| 20260508123659 | 53 | 236 | 3.5 | 7.0 | 0.00 | 0.00 | 0.00 | 59 | 1014.5 |
| 20260508123600 | 53 | 192 | 0.0 | 7.0 | 0.00 | 0.00 | 0.00 | 58 | 1014.6 |
| 20260508123500 | 53 | 196 | 0.9 | 7.0 | 0.00 | 0.00 | 0.00 | 59 | 1014.6 |
| 20260508123359 | 53 | 220 | 0.9 | 7.0 | 0.00 | 0.00 | 0.00 | 59 | 1014.6 |
| 20260508123259 | 53 | 95 | 0.9 | 7.0 | 0.00 | 0.00 | 0.00 | 59 | 1014.6 |
| 20260508123159 | 53 | 174 | 2.6 | 7.0 | 0.00 | 0.00 | 0.00 | 59 | 1014.6 |
| 20260508123059 | 53 | 200 | 0.9 | 7.0 | 0.00 | 0.00 | 0.00 | 59 | 1014.6 |
| 20260508123003 | 52 | 208 | 3.5 | 7.0 | 0.00 | 0.00 | 0.00 | 59 | 1014.6 |
| 20260508122659 | 52 | 329 | 0.9 | 5.2 | 0.00 | 0.00 | 0.00 | 59 | 1014.5 |
| 20260508122559 | 52 | 205 | 2.6 | 5.2 | 0.00 | 0.00 | 0.00 | 60 | 1014.5 |
| 20260508122501 | 52 | 272 | 0.0 | 7.0 | 0.00 | 0.00 | 0.00 | 60 | 1014.5 |
| 20260508122359 | 52 | 290 | 1.7 | 7.0 | 0.00 | 0.00 | 0.00 | 59 | 1014.4 |
| 20260508122259 | 52 | 182 | 5.2 | 7.0 | 0.00 | 0.00 | 0.00 | 59 | 1014.5 |
| 20260508122200 | 52 | 196 | 1.7 | 7.0 | 0.00 | 0.00 | 0.00 | 60 | 1014.4 |
| 20260508122101 | 52 | 180 | 1.7 | 7.0 | 0.00 | 0.00 | 0.00 | 60 | 1014.5 |
| 20260508122000 | 52 | 183 | 0.0 | 7.0 | 0.00 | 0.00 | 0.00 | 60 | 1014.5 |
| 20260508121901 | 52 | 149 | 2.6 | 7.0 | 0.00 | 0.00 | 0.00 | 60 | 1014.5 |
| 20260508121801 | 51 | 175 | 2.6 | 7.0 | 0.00 | 0.00 | 0.00 | 61 | 1014.5 |
| 20260508121701 | 51 | 205 | 0.9 | 7.0 | 0.00 | 0.00 | 0.00 | 60 | 1014.5 |
| 20260508121601 | 51 | 188 | 5.2 | 7.0 | 0.00 | 0.00 | 0.00 | 60 | 1014.5 |
| 20260508121300 | 51 | 294 | 4.3 | 8.7 | 0.00 | 0.00 | 0.00 | 61 | 1014.5 |
| 20260508121159 | 51 | 182 | 1.7 | 8.7 | 0.00 | 0.00 | 0.00 | 61 | 1014.5 |
| 20260508121059 | 51 | 159 | 3.5 | 8.7 | 0.00 | 0.00 | 0.00 | 61 | 1014.4 |
| 20260508121001 | 51 | 210 | 3.5 | 8.7 | 0.00 | 0.00 | 0.00 | 61 | 1014.5 |
| 20260508120900 | 51 | 230 | 0.9 | 8.7 | 0.00 | 0.00 | 0.00 | 61 | 1014.4 |
| 20260508120700 | 51 | 148 | 2.6 | 8.7 | 0.00 | 0.00 | 0.00 | 62 | 1014.5 |
| 20260508120600 | 51 | 174 | 1.7 | 9.6 | 0.00 | 0.00 | 0.00 | 62 | 1014.6 |
| 20260508120458 | 51 | 206 | 1.7 | 9.6 | 0.00 | 0.00 | 0.00 | 62 | 1014.5 |
| 20260508120401 | 51 | 189 | 1.7 | 9.6 | 0.00 | 0.00 | 0.00 | 62 | 1014.5 |
| 20260508120259 | 50 | 240 | 0.0 | 9.6 | 0.00 | 0.00 | 0.00 | 62 | 1014.5 |
| 20260508120158 | 50 | 197 | 0.9 | 9.6 | 0.00 | 0.00 | 0.00 | 63 | 1014.5 |
| 20260508120058 | 50 | 250 | 1.7 | 9.6 | 0.00 | 0.00 | 0.00 | 63 | 1014.5 |
| 20260508120002 | 50 | 203 | 0.9 | 9.6 | 0.00 | 0.00 | 0.00 | 63 | 1014.5 |
| 20260508115701 | 50 | 197 | 0.9 | 4.3 | 0.00 | 0.00 | 0.00 | 63 | 1014.6 |
| 20260508115600 | 50 | 200 | 0.9 | 4.3 | 0.00 | 0.00 | 0.00 | 64 | 1014.5 |
| 20260508115459 | 50 | 281 | 0.0 | 4.3 | 0.00 | 0.00 | 0.00 | 63 | 1014.4 |
| 20260508115359 | 50 | 167 | 0.9 | 4.3 | 0.00 | 0.00 | 0.00 | 63 | 1014.4 |
| 20260508115259 | 50 | 163 | 1.7 | 4.3 | 0.00 | 0.00 | 0.00 | 64 | 1014.4 |
| 20260508115200 | 50 | 203 | 1.7 | 5.2 | 0.00 | 0.00 | 0.00 | 64 | 1014.4 |
| 20260508115059 | 49 | 206 | 0.9 | 5.2 | 0.00 | 0.00 | 0.00 | 64 | 1014.3 |
| 20260508115000 | 49 | 276 | 0.0 | 5.2 | 0.00 | 0.00 | 0.00 | 64 | 1014.4 |
| 20260508114659 | 49 | 194 | 1.7 | 5.2 | 0.00 | 0.00 | 0.00 | 65 | 1014.4 |
| 20260508114601 | 49 | 216 | 3.5 | 7.0 | 0.00 | 0.00 | 0.00 | 65 | 1014.3 |
| 20260508114301 | 48 | 195 | 5.2 | 7.0 | 0.00 | 0.00 | 0.00 | 65 | 1014.2 |
| 20260508114159 | 48 | 285 | 2.6 | 7.0 | 0.00 | 0.00 | 0.00 | 65 | 1014.4 |
| 20260508114101 | 48 | 186 | 1.7 | 7.0 | 0.00 | 0.00 | 0.00 | 65 | 1014.3 |
| 20260508114000 | 48 | 211 | 0.9 | 7.0 | 0.00 | 0.00 | 0.00 | 65 | 1014.3 |
| 20260508113859 | 48 | 157 | 1.7 | 7.0 | 0.00 | 0.00 | 0.00 | 65 | 1014.3 |
| 20260508113559 | 48 | 192 | 5.2 | 6.1 | 0.00 | 0.00 | 0.00 | 66 | 1014.3 |
| 20260508113400 | 48 | 198 | 2.6 | 5.2 | 0.00 | 0.00 | 0.00 | 66 | 1014.3 |
| 20260508113301 | 48 | 199 | 0.0 | 4.3 | 0.00 | 0.00 | 0.00 | 66 | 1014.3 |
| 20260508113059 | 48 | 178 | 0.9 | 4.3 | 0.00 | 0.00 | 0.00 | 66 | 1014.3 |
| 20260508113000 | 48 | 205 | 0.9 | 4.3 | 0.00 | 0.00 | 0.00 | 66 | 1014.2 |
| 20260508112859 | 48 | 290 | 0.0 | 4.3 | 0.00 | 0.00 | 0.00 | 66 | 1014.2 |
| 20260508112759 | 48 | 175 | 0.0 | 4.3 | 0.00 | 0.00 | 0.00 | 66 | 1014.2 |
| 20260508112659 | 48 | 185 | 4.3 | 4.3 | 0.00 | 0.00 | 0.00 | 65 | 1014.2 |
| 20260508112601 | 48 | 188 | 3.5 | 4.3 | 0.00 | 0.00 | 0.00 | 66 | 1014.2 |
| 20260508112459 | 48 | 197 | 1.7 | 4.3 | 0.00 | 0.00 | 0.00 | 66 | 1014.2 |
| 20260508112359 | 48 | 198 | 0.9 | 4.3 | 0.00 | 0.00 | 0.00 | 65 | 1014.2 |
| 20260508112159 | 48 | 196 | 0.9 | 4.3 | 0.00 | 0.00 | 0.00 | 65 | 1014.2 |
| 20260508112059 | 48 | 266 | 1.7 | 4.3 | 0.00 | 0.00 | 0.00 | 65 | 1014.2 |
| 20260508111959 | 48 | 190 | 0.9 | 4.3 | 0.00 | 0.00 | 0.00 | 66 | 1014.2 |
| 20260508111858 | 48 | 206 | 1.7 | 4.3 | 0.00 | 0.00 | 0.00 | 65 | 1014.2 |
| 20260508111800 | 48 | 190 | 0.0 | 4.3 | 0.00 | 0.00 | 0.00 | 65 | 1014.2 |
| 20260508111701 | 48 | 181 | 0.0 | 4.3 | 0.00 | 0.00 | 0.00 | 65 | 1014.3 |
| 20260508111600 | 48 | 171 | 0.9 | 4.3 | 0.00 | 0.00 | 0.00 | 65 | 1014.1 |
| 20260508111359 | 48 | 175 | 2.6 | 4.3 | 0.00 | 0.00 | 0.00 | 64 | 1014.2 |
| 20260508111259 | 48 | 168 | 4.3 | 4.3 | 0.00 | 0.00 | 0.00 | 65 | 1014.2 |
| 20260508111159 | 48 | 211 | 1.7 | 2.6 | 0.00 | 0.00 | 0.00 | 65 | 1014.2 |
| 20260508111059 | 48 | 212 | 1.7 | 2.6 | 0.00 | 0.00 | 0.00 | 64 | 1014.2 |
| 20260508110959 | 48 | 179 | 0.0 | 4.3 | 0.00 | 0.00 | 0.00 | 64 | 1014.2 |
| 20260508110801 | 48 | 194 | 1.7 | 5.2 | 0.00 | 0.00 | 0.00 | 65 | 1014.2 |
| 20260508110659 | 48 | 234 | 0.0 | 5.2 | 0.00 | 0.00 | 0.00 | 65 | 1014.2 |
| 20260508110600 | 48 | 189 | 0.0 | 5.2 | 0.00 | 0.00 | 0.00 | 64 | 1014.1 |
| 20260508110500 | 48 | 188 | 0.9 | 5.2 | 0.00 | 0.00 | 0.00 | 64 | 1014.2 |
| 20260508110301 | 48 | 341 | 0.9 | 5.2 | 0.00 | 0.00 | 0.00 | 64 | 1014.1 |
| 20260508110158 | 48 | 269 | 0.0 | 5.2 | 0.00 | 0.00 | 0.00 | 64 | 1014.0 |
| 20260508110059 | 48 | 224 | 4.3 | 5.2 | 0.00 | 0.00 | 0.00 | 64 | 1014.0 |
| 20260508110002 | 48 | 240 | 0.9 | 5.2 | 0.00 | 0.00 | 0.00 | 64 | 1014.0 |
| 20260508105859 | 49 | 198 | 0.0 | 3.5 | 0.00 | 0.00 | 0.00 | 64 | 1014.0 |
| 20260508105758 | 49 | 211 | 0.0 | 4.3 | 0.00 | 0.00 | 0.00 | 64 | 1013.9 |
| 20260508105659 | 49 | 195 | 0.9 | 5.2 | 0.00 | 0.00 | 0.00 | 64 | 1014.0 |
| 20260508105559 | 49 | 221 | 0.0 | 5.2 | 0.00 | 0.00 | 0.00 | 64 | 1014.0 |
| 20260508105459 | 49 | 232 | 1.7 | 5.2 | 0.00 | 0.00 | 0.00 | 64 | 1014.0 |
| 20260508105401 | 49 | 223 | 1.7 | 5.2 | 0.00 | 0.00 | 0.00 | 63 | 1014.0 |
| 20260508105259 | 49 | 250 | 2.6 | 5.2 | 0.00 | 0.00 | 0.00 | 64 | 1014.0 |
| 20260508105159 | 49 | 203 | 2.6 | 5.2 | 0.00 | 0.00 | 0.00 | 64 | 1013.9 |
| 20260508105100 | 49 | 208 | 1.7 | 5.2 | 0.00 | 0.00 | 0.00 | 63 | 1014.0 |
| 20260508105000 | 49 | 198 | 0.9 | 5.2 | 0.00 | 0.00 | 0.00 | 64 | 1014.0 |
| 20260508104858 | 49 | 225 | 0.0 | 5.2 | 0.00 | 0.00 | 0.00 | 64 | 1014.0 |
| 20260508104759 | 49 | 234 | 0.0 | 5.2 | 0.00 | 0.00 | 0.00 | 64 | 1014.0 |
| 20260508104659 | 49 | 240 | 0.0 | 5.2 | 0.00 | 0.00 | 0.00 | 63 | 1014.1 |
| 20260508104559 | 49 | 220 | 1.7 | 5.2 | 0.00 | 0.00 | 0.00 | 63 | 1014.1 |
| 20260508104501 | 49 | 215 | 1.7 | 5.2 | 0.00 | 0.00 | 0.00 | 64 | 1014.0 |
| 20260508104359 | 49 | 213 | 1.7 | 5.2 | 0.00 | 0.00 | 0.00 | 64 | 1014.0 |
| 20260508104259 | 49 | 215 | 0.9 | 6.1 | 0.00 | 0.00 | 0.00 | 63 | 1014.0 |
| 20260508104159 | 49 | 196 | 0.0 | 6.1 | 0.00 | 0.00 | 0.00 | 63 | 1014.0 |
| 20260508103859 | 49 | 206 | 1.7 | 6.1 | 0.00 | 0.00 | 0.00 | 63 | 1014.1 |
| 20260508103759 | 49 | 202 | 2.6 | 6.1 | 0.00 | 0.00 | 0.00 | 63 | 1014.0 |
| 20260508103659 | 49 | 226 | 1.7 | 6.1 | 0.00 | 0.00 | 0.00 | 64 | 1014.0 |
| 20260508103600 | 49 | 221 | 2.6 | 6.1 | 0.00 | 0.00 | 0.00 | 63 | 1014.0 |
| 20260508103359 | 49 | 190 | 1.7 | 5.2 | 0.00 | 0.00 | 0.00 | 63 | 1014.0 |
| 20260508103202 | 49 | 191 | 0.0 | 4.3 | 0.00 | 0.00 | 0.00 | 63 | 1014.0 |
| 20260508103100 | 49 | 161 | 1.7 | 4.3 | 0.00 | 0.00 | 0.00 | 63 | 1014.0 |
| 20260508102900 | 49 | 257 | 0.9 | 4.3 | 0.00 | 0.00 | 0.00 | 63 | 1014.0 |
| 20260508102758 | 49 | 164 | 3.5 | 4.3 | 0.00 | 0.00 | 0.00 | 63 | 1014.0 |
| 20260508102701 | 49 | 144 | 0.9 | 4.3 | 0.00 | 0.00 | 0.00 | 63 | 1014.0 |
| 20260508102459 | 49 | 237 | 1.7 | 3.5 | 0.00 | 0.00 | 0.00 | 63 | 1014.0 |
| 20260508102359 | 49 | 211 | 0.0 | 3.5 | 0.00 | 0.00 | 0.00 | 63 | 1014.1 |
| 20260508102259 | 49 | 217 | 0.9 | 3.5 | 0.00 | 0.00 | 0.00 | 63 | 1014.0 |
| 20260508102200 | 49 | 172 | 1.7 | 3.5 | 0.00 | 0.00 | 0.00 | 63 | 1014.0 |
| 20260508102059 | 49 | 190 | 0.0 | 3.5 | 0.00 | 0.00 | 0.00 | 63 | 1014.0 |
| 20260508101959 | 49 | 198 | 0.0 | 3.5 | 0.00 | 0.00 | 0.00 | 63 | 1014.0 |
| 20260508101900 | 49 | 238 | 0.0 | 3.5 | 0.00 | 0.00 | 0.00 | 63 | 1014.0 |
| 20260508101800 | 49 | 219 | 0.0 | 3.5 | 0.00 | 0.00 | 0.00 | 63 | 1014.0 |
| 20260508101600 | 49 | 223 | 3.5 | 3.5 | 0.00 | 0.00 | 0.00 | 63 | 1014.0 |
| 20260508101459 | 49 | 234 | 1.7 | 3.5 | 0.00 | 0.00 | 0.00 | 63 | 1014.1 |
| 20260508101359 | 49 | 275 | 0.9 | 4.3 | 0.00 | 0.00 | 0.00 | 63 | 1014.0 |
| 20260508101258 | 49 | 207 | 1.7 | 5.2 | 0.00 | 0.00 | 0.00 | 63 | 1014.0 |
| 20260508101202 | 49 | 179 | 2.6 | 5.2 | 0.00 | 0.00 | 0.00 | 63 | 1014.0 |
| 20260508101059 | 49 | 209 | 2.6 | 5.2 | 0.00 | 0.00 | 0.00 | 63 | 1014.1 |
| 20260508100958 | 49 | 210 | 0.9 | 5.2 | 0.00 | 0.00 | 0.00 | 63 | 1014.0 |
| 20260508100859 | 49 | 172 | 0.9 | 5.2 | 0.00 | 0.00 | 0.00 | 62 | 1014.0 |
| 20260508100759 | 49 | 254 | 2.6 | 5.2 | 0.00 | 0.00 | 0.00 | 63 | 1014.1 |
| 20260508100700 | 49 | 173 | 2.6 | 5.2 | 0.00 | 0.00 | 0.00 | 63 | 1014.1 |
| 20260508100501 | 49 | 222 | 0.0 | 5.2 | 0.00 | 0.00 | 0.00 | 62 | 1014.1 |
| 20260508100400 | 49 | 177 | 5.2 | 6.1 | 0.00 | 0.00 | 0.00 | 62 | 1014.1 |
| 20260508100259 | 49 | 228 | 0.9 | 4.3 | 0.00 | 0.00 | 0.00 | 62 | 1014.0 |
| 20260508100200 | 49 | 192 | 1.7 | 4.3 | 0.00 | 0.00 | 0.00 | 63 | 1014.1 |
| 20260508100100 | 49 | 215 | 0.9 | 4.3 | 0.00 | 0.00 | 0.00 | 62 | 1014.1 |
| 20260508095958 | 49 | 191 | 0.9 | 4.3 | 0.00 | 0.00 | 0.00 | 63 | 1014.1 |
| 20260508095900 | 49 | 216 | 1.7 | 4.3 | 0.00 | 0.00 | 0.00 | 62 | 1014.1 |
| 20260508095759 | 49 | 189 | 0.9 | 4.3 | 0.00 | 0.00 | 0.00 | 63 | 1014.1 |
| 20260508095659 | 49 | 195 | 0.0 | 6.1 | 0.00 | 0.00 | 0.00 | 63 | 1014.0 |
| 20260508095600 | 49 | 194 | 1.7 | 7.8 | 0.00 | 0.00 | 0.00 | 63 | 1014.0 |
| 20260508095500 | 49 | 197 | 3.5 | 7.8 | 0.00 | 0.00 | 0.00 | 62 | 1014.0 |
| 20260508095401 | 49 | 212 | 0.0 | 7.8 | 0.00 | 0.00 | 0.00 | 62 | 1014.1 |
| 20260508095159 | 49 | 273 | 0.9 | 7.8 | 0.00 | 0.00 | 0.00 | 62 | 1014.0 |
| 20260508095100 | 49 | 184 | 1.7 | 7.8 | 0.00 | 0.00 | 0.00 | 62 | 1014.0 |
| 20260508095000 | 49 | 204 | 2.6 | 7.8 | 0.00 | 0.00 | 0.00 | 62 | 1014.1 |
| 20260508094900 | 49 | 209 | 1.7 | 7.8 | 0.00 | 0.00 | 0.00 | 61 | 1014.1 |
| 20260508094759 | 49 | 232 | 1.7 | 7.8 | 0.00 | 0.00 | 0.00 | 63 | 1014.1 |
| 20260508094659 | 49 | 270 | 1.7 | 5.2 | 0.00 | 0.00 | 0.00 | 63 | 1014.1 |
| 20260508094459 | 49 | 198 | 0.9 | 5.2 | 0.00 | 0.00 | 0.00 | 63 | 1014.1 |
| 20260508094359 | 49 | 198 | 0.9 | 5.2 | 0.00 | 0.00 | 0.00 | 63 | 1014.0 |
| 20260508094259 | 49 | 202 | 1.7 | 5.2 | 0.00 | 0.00 | 0.00 | 62 | 1014.1 |
| 20260508094159 | 49 | 248 | 0.0 | 5.2 | 0.00 | 0.00 | 0.00 | 62 | 1014.1 |
| 20260508094059 | 49 | 188 | 1.7 | 5.2 | 0.00 | 0.00 | 0.00 | 62 | 1014.1 |
| 20260508094000 | 49 | 205 | 0.0 | 5.2 | 0.00 | 0.00 | 0.00 | 62 | 1014.1 |
| 20260508093859 | 49 | 196 | 0.9 | 6.1 | 0.00 | 0.00 | 0.00 | 62 | 1014.1 |
| 20260508093759 | 49 | 192 | 4.3 | 6.1 | 0.00 | 0.00 | 0.00 | 63 | 1014.1 |
| 20260508093700 | 49 | 210 | 0.9 | 6.1 | 0.00 | 0.00 | 0.00 | 63 | 1014.1 |
| 20260508093559 | 49 | 198 | 0.9 | 6.1 | 0.00 | 0.00 | 0.00 | 63 | 1014.1 |
| 20260508093359 | 49 | 143 | 0.9 | 4.3 | 0.00 | 0.00 | 0.00 | 63 | 1014.1 |
| 20260508093259 | 49 | 206 | 1.7 | 4.3 | 0.00 | 0.00 | 0.00 | 63 | 1014.2 |
| 20260508093159 | 49 | 236 | 0.9 | 4.3 | 0.00 | 0.00 | 0.00 | 62 | 1014.0 |
| 20260508093100 | 49 | 167 | 3.5 | 4.3 | 0.00 | 0.00 | 0.00 | 63 | 1014.1 |
| 20260508092958 | 49 | 209 | 0.0 | 4.3 | 0.00 | 0.00 | 0.00 | 63 | 1014.1 |
| 20260508092759 | 49 | 173 | 1.7 | 3.5 | 0.00 | 0.00 | 0.00 | 63 | 1014.1 |
| 20260508092659 | 49 | 346 | 0.9 | 3.5 | 0.00 | 0.00 | 0.00 | 63 | 1014.1 |
| 20260508092559 | 49 | 170 | 1.7 | 4.3 | 0.00 | 0.00 | 0.00 | 63 | 1014.1 |
| 20260508092500 | 48 | 263 | 0.9 | 4.3 | 0.00 | 0.00 | 0.00 | 63 | 1014.0 |
| 20260508092359 | 48 | 345 | 0.9 | 5.2 | 0.00 | 0.00 | 0.00 | 64 | 1014.0 |
| 20260508092259 | 48 | 226 | 0.0 | 5.2 | 0.00 | 0.00 | 0.00 | 64 | 1014.1 |
| 20260508092200 | 48 | 234 | 0.0 | 5.2 | 0.00 | 0.00 | 0.00 | 64 | 1014.1 |
| 20260508091959 | 48 | 187 | 0.0 | 5.2 | 0.00 | 0.00 | 0.00 | 63 | 1014.1 |
| 20260508091858 | 48 | 192 | 0.9 | 5.2 | 0.00 | 0.00 | 0.00 | 63 | 1014.0 |
| 20260508091700 | 48 | 196 | 2.6 | 5.2 | 0.00 | 0.00 | 0.00 | 64 | 1014.0 |
| 20260508091558 | 48 | 200 | 1.7 | 5.2 | 0.00 | 0.00 | 0.00 | 63 | 1014.0 |
| 20260508091501 | 48 | 211 | 3.5 | 4.3 | 0.00 | 0.00 | 0.00 | 64 | 1014.0 |
| 20260508091359 | 48 | 173 | 1.7 | 4.3 | 0.00 | 0.00 | 0.00 | 64 | 1014.1 |
| 20260508091300 | 48 | 194 | 4.3 | 4.3 | 0.00 | 0.00 | 0.00 | 65 | 1014.1 |
| 20260508091159 | 48 | 193 | 2.6 | 4.3 | 0.00 | 0.00 | 0.00 | 65 | 1014.1 |
| 20260508091100 | 48 | 194 | 2.6 | 4.3 | 0.00 | 0.00 | 0.00 | 65 | 1014.1 |
| 20260508091002 | 48 | 17 | 1.7 | 3.5 | 0.00 | 0.00 | 0.00 | 65 | 1014.1 |
| 20260508090859 | 48 | 221 | 0.9 | 3.5 | 0.00 | 0.00 | 0.00 | 65 | 1014.2 |
| 20260508090759 | 48 | 184 | 0.0 | 3.5 | 0.00 | 0.00 | 0.00 | 65 | 1014.2 |
| 20260508090658 | 48 | 283 | 0.0 | 3.5 | 0.00 | 0.00 | 0.00 | 65 | 1014.1 |
| 20260508090600 | 48 | 162 | 0.0 | 3.5 | 0.00 | 0.00 | 0.00 | 65 | 1014.2 |
| 20260508090500 | 48 | 139 | 0.0 | 3.5 | 0.00 | 0.00 | 0.00 | 65 | 1014.2 |
| 20260508090359 | 48 | 202 | 0.0 | 3.5 | 0.00 | 0.00 | 0.00 | 65 | 1014.2 |
| 20260508090100 | 48 | 201 | 1.7 | 3.5 | 0.00 | 0.00 | 0.00 | 65 | 1014.2 |
| 20260508085858 | 48 | 202 | 0.9 | 3.5 | 0.00 | 0.00 | 0.00 | 65 | 1014.1 |
| 20260508085758 | 48 | 208 | 0.0 | 3.5 | 0.00 | 0.00 | 0.00 | 65 | 1014.1 |
| 20260508085659 | 48 | 180 | 1.7 | 3.5 | 0.00 | 0.00 | 0.00 | 65 | 1014.1 |
| 20260508085457 | 48 | 250 | 0.0 | 4.3 | 0.00 | 0.00 | 0.00 | 65 | 1014.2 |
| 20260508085359 | 48 | 213 | 0.9 | 4.3 | 0.00 | 0.00 | 0.00 | 65 | 1014.1 |
| 20260508085258 | 48 | 187 | 1.7 | 4.3 | 0.00 | 0.00 | 0.00 | 65 | 1014.2 |
| 20260508085158 | 48 | 230 | 0.9 | 7.8 | 0.00 | 0.00 | 0.00 | 65 | 1014.2 |
| 20260508085059 | 48 | 201 | 1.7 | 7.8 | 0.00 | 0.00 | 0.00 | 65 | 1014.1 |
| 20260508084958 | 48 | 227 | 0.9 | 7.8 | 0.00 | 0.00 | 0.00 | 65 | 1014.2 |
| 20260508084657 | 48 | 178 | 1.7 | 7.8 | 0.00 | 0.00 | 0.00 | 65 | 1014.2 |
| 20260508084558 | 48 | 200 | 1.7 | 7.8 | 0.00 | 0.00 | 0.00 | 64 | 1014.1 |
| 20260508084359 | 48 | 268 | 0.9 | 8.7 | 0.00 | 0.00 | 0.00 | 65 | 1014.1 |
| 20260508084258 | 48 | 208 | 0.0 | 2.6 | 0.00 | 0.00 | 0.00 | 65 | 1014.1 |
| 20260508084158 | 48 | 197 | 0.0 | 5.2 | 0.00 | 0.00 | 0.00 | 65 | 1014.0 |
| 20260508084058 | 48 | 271 | 0.0 | 5.2 | 0.00 | 0.00 | 0.00 | 65 | 1014.2 |
| 20260508083958 | 48 | 295 | 0.0 | 5.2 | 0.00 | 0.00 | 0.00 | 65 | 1014.0 |
| 20260508083759 | 48 | 198 | 0.0 | 5.2 | 0.00 | 0.00 | 0.00 | 65 | 1014.0 |
| 20260508083659 | 48 | 198 | 1.7 | 5.2 | 0.00 | 0.00 | 0.00 | 64 | 1014.1 |
| 20260508083558 | 48 | 200 | 0.9 | 5.2 | 0.00 | 0.00 | 0.00 | 64 | 1014.1 |
| 20260508083458 | 48 | 223 | 0.0 | 5.2 | 0.00 | 0.00 | 0.00 | 64 | 1014.1 |
| 20260508083258 | 48 | 247 | 0.9 | 3.5 | 0.00 | 0.00 | 0.00 | 64 | 1014.0 |
| 20260508083157 | 48 | 215 | 0.0 | 3.5 | 0.00 | 0.00 | 0.00 | 64 | 1014.0 |
| 20260508083059 | 48 | 180 | 0.0 | 3.5 | 0.00 | 0.00 | 0.00 | 64 | 1014.0 |
| 20260508083000 | 48 | 225 | 0.0 | 3.5 | 0.00 | 0.00 | 0.00 | 64 | 1014.0 |
| 20260508082859 | 48 | 196 | 0.0 | 3.5 | 0.00 | 0.00 | 0.00 | 64 | 1014.0 |
| 20260508082757 | 48 | 192 | 2.6 | 3.5 | 0.00 | 0.00 | 0.00 | 64 | 1014.0 |
| 20260508082701 | 48 | 186 | 0.9 | 3.5 | 0.00 | 0.00 | 0.00 | 64 | 1014.0 |
| 20260508082558 | 48 | 182 | 1.7 | 3.5 | 0.00 | 0.00 | 0.00 | 64 | 1014.0 |
| 20260508082458 | 48 | 208 | 0.9 | 3.5 | 0.00 | 0.00 | 0.00 | 65 | 1013.9 |
| 20260508082258 | 48 | 203 | 0.9 | 5.2 | 0.00 | 0.00 | 0.00 | 64 | 1014.1 |
| 20260508082158 | 48 | 175 | 3.5 | 5.2 | 0.00 | 0.00 | 0.00 | 64 | 1014.0 |
| 20260508082100 | 48 | 213 | 0.0 | 5.2 | 0.00 | 0.00 | 0.00 | 64 | 1014.0 |
| 20260508082000 | 48 | 170 | 0.9 | 5.2 | 0.00 | 0.00 | 0.00 | 64 | 1014.0 |
| 20260508081858 | 48 | 187 | 2.6 | 5.2 | 0.00 | 0.00 | 0.00 | 64 | 1014.0 |
| 20260508081759 | 48 | 234 | 0.9 | 5.2 | 0.00 | 0.00 | 0.00 | 64 | 1014.0 |
| 20260508081658 | 48 | 243 | 0.0 | 5.2 | 0.00 | 0.00 | 0.00 | 64 | 1013.9 |
| 20260508081459 | 48 | 229 | 1.7 | 3.5 | 0.00 | 0.00 | 0.00 | 64 | 1014.0 |
| 20260508081358 | 48 | 214 | 0.0 | 3.5 | 0.00 | 0.00 | 0.00 | 64 | 1014.1 |
| 20260508081258 | 48 | 205 | 0.9 | 3.5 | 0.00 | 0.00 | 0.00 | 64 | 1014.0 |
| 20260508081158 | 48 | 213 | 3.5 | 4.3 | 0.00 | 0.00 | 0.00 | 64 | 1014.0 |
| 20260508081058 | 48 | 198 | 0.9 | 3.5 | 0.00 | 0.00 | 0.00 | 64 | 1013.9 |
| 20260508081000 | 48 | 206 | 0.0 | 3.5 | 0.00 | 0.00 | 0.00 | 64 | 1013.9 |
| 20260508080858 | 48 | 313 | 0.9 | 3.5 | 0.00 | 0.00 | 0.00 | 64 | 1013.9 |
| 20260508080658 | 48 | 214 | 1.7 | 3.5 | 0.00 | 0.00 | 0.00 | 64 | 1014.0 |
| 20260508080558 | 48 | 205 | 0.0 | 3.5 | 0.00 | 0.00 | 0.00 | 63 | 1013.9 |
| 20260508080458 | 48 | 212 | 1.7 | 3.5 | 0.00 | 0.00 | 0.00 | 63 | 1013.9 |
| 20260508080358 | 48 | 210 | 1.7 | 3.5 | 0.00 | 0.00 | 0.00 | 63 | 1014.0 |
| 20260508080258 | 48 | 227 | 0.0 | 2.6 | 0.00 | 0.00 | 0.00 | 64 | 1013.8 |
| 20260508080158 | 48 | 238 | 0.0 | 2.6 | 0.00 | 0.00 | 0.00 | 65 | 1013.9 |
| 20260508075959 | 48 | 227 | 1.7 | 2.6 | 0.00 | 0.00 | 0.00 | 64 | 1013.9 |
| 20260508075758 | 48 | 193 | 0.0 | 2.6 | 0.00 | 0.00 | 0.00 | 64 | 1013.9 |
| 20260508075657 | 48 | 196 | 0.0 | 2.6 | 0.00 | 0.00 | 0.00 | 64 | 1013.8 |
| 20260508075558 | 48 | 196 | 0.0 | 2.6 | 0.00 | 0.00 | 0.00 | 64 | 1014.0 |
| 20260508075358 | 48 | 172 | 0.9 | 4.3 | 0.00 | 0.00 | 0.00 | 63 | 1014.0 |
| 20260508075058 | 48 | 211 | 0.9 | 4.3 | 0.00 | 0.00 | 0.00 | 63 | 1013.9 |
| 20260508074859 | 48 | 182 | 0.9 | 4.3 | 0.00 | 0.00 | 0.00 | 63 | 1013.9 |
| 20260508074758 | 48 | 173 | 0.9 | 4.3 | 0.00 | 0.00 | 0.00 | 63 | 1014.0 |
| 20260508074658 | 48 | 232 | 0.9 | 3.5 | 0.00 | 0.00 | 0.00 | 63 | 1014.0 |
| 20260508074458 | 48 | 191 | 1.7 | 3.5 | 0.00 | 0.00 | 0.00 | 63 | 1014.0 |
| 20260508074359 | 49 | 192 | 0.0 | 3.5 | 0.00 | 0.00 | 0.00 | 63 | 1014.0 |
| 20260508074258 | 49 | 228 | 0.0 | 3.5 | 0.00 | 0.00 | 0.00 | 62 | 1014.0 |
| 20260508074157 | 49 | 216 | 0.9 | 3.5 | 0.00 | 0.00 | 0.00 | 63 | 1014.0 |
| 20260508074058 | 49 | 216 | 0.9 | 3.5 | 0.00 | 0.00 | 0.00 | 62 | 1014.0 |
| 20260508073958 | 49 | 229 | 0.9 | 3.5 | 0.00 | 0.00 | 0.00 | 63 | 1014.0 |
| 20260508073858 | 49 | 261 | 0.9 | 3.5 | 0.00 | 0.00 | 0.00 | 63 | 1013.9 |
| 20260508073759 | 49 | 199 | 0.0 | 3.5 | 0.00 | 0.00 | 0.00 | 63 | 1013.9 |
| 20260508073657 | 49 | 175 | 1.7 | 3.5 | 0.00 | 0.00 | 0.00 | 62 | 1013.9 |
| 20260508073458 | 49 | 228 | 0.0 | 0.0 | 0.00 | 0.00 | 0.00 | 63 | 1013.8 |
| 20260508073358 | 49 | 219 | 0.0 | 1.7 | 0.00 | 0.00 | 0.00 | 63 | 1013.9 |
| 20260508073158 | 49 | 217 | 0.0 | 5.2 | 0.00 | 0.00 | 0.00 | 62 | 1013.9 |
| 20260508072958 | 49 | 210 | 0.0 | 5.2 | 0.00 | 0.00 | 0.00 | 62 | 1013.8 |
| 20260508072900 | 49 | 188 | 0.0 | 5.2 | 0.00 | 0.00 | 0.00 | 62 | 1013.8 |
| 20260508072758 | 49 | 190 | 0.0 | 5.2 | 0.00 | 0.00 | 0.00 | 62 | 1013.9 |
| 20260508072659 | 49 | 197 | 0.0 | 5.2 | 0.00 | 0.00 | 0.00 | 62 | 1013.9 |
| 20260508072557 | 49 | 196 | 0.0 | 5.2 | 0.00 | 0.00 | 0.00 | 62 | 1013.9 |
| 20260508072458 | 49 | 187 | 0.9 | 5.2 | 0.00 | 0.00 | 0.00 | 62 | 1013.9 |
| 20260508072359 | 49 | 198 | 1.7 | 5.2 | 0.00 | 0.00 | 0.00 | 62 | 1014.0 |
| 20260508072259 | 49 | 194 | 1.7 | 3.5 | 0.00 | 0.00 | 0.00 | 62 | 1013.9 |
| 20260508072058 | 49 | 188 | 0.9 | 3.5 | 0.00 | 0.00 | 0.00 | 62 | 1014.0 |
| 20260508072000 | 49 | 232 | 0.9 | 569.2 | 1.26 | 0.00 | 0.00 | 62 | |
| 20260508071859 | 49 | 217 | 0.9 | 4.3 | 0.00 | 0.00 | 0.00 | 62 | 1013.9 |
| 20260508071759 | 49 | 173 | 0.0 | 4.3 | 0.00 | 0.00 | 0.00 | 62 | 1014.0 |
| 20260508071658 | 49 | 198 | 0.0 | 4.3 | 0.00 | 0.00 | 0.00 | 62 | 1014.0 |
| 20260508071558 | 49 | 213 | 0.0 | 4.3 | 0.00 | 0.00 | 0.00 | 62 | 1014.0 |
| 20260508071458 | 49 | 232 | 0.9 | 4.3 | 0.00 | 0.00 | 0.00 | 62 | 1014.0 |
| 20260508071258 | 49 | 304 | 1.7 | 4.3 | 0.00 | 0.00 | 0.00 | 62 | 1014.0 |
| 20260508071157 | 49 | 314 | 0.9 | 4.3 | 0.00 | 0.00 | 0.00 | 62 | 1014.0 |
| 20260508071059 | 49 | 256 | 3.5 | 3.5 | 0.00 | 0.00 | 0.00 | 63 | 1014.0 |
| 20260508070958 | 49 | 192 | 0.0 | 2.6 | 0.00 | 0.00 | 0.00 | 63 | 1013.9 |
| 20260508070859 | 49 | 194 | 1.7 | 2.6 | 0.00 | 0.00 | 0.00 | 63 | 1013.9 |
| 20260508070759 | 49 | 244 | 0.9 | 2.6 | 0.00 | 0.00 | 0.00 | 63 | 1014.0 |
| 20260508070658 | 49 | 257 | 0.9 | 2.6 | 0.00 | 0.00 | 0.00 | 63 | 1014.0 |
| 20260508070458 | 49 | 196 | 0.9 | 4.3 | 0.00 | 0.00 | 0.00 | 62 | 1014.0 |
| 20260508070300 | 49 | 295 | 0.0 | 4.3 | 0.00 | 0.00 | 0.00 | 62 | 1014.0 |
| 20260508070157 | 49 | 209 | 0.0 | 4.3 | 0.00 | 0.00 | 0.00 | 62 | 1014.0 |
| 20260508070059 | 49 | 209 | 0.0 | 4.3 | 0.00 | 0.00 | 0.00 | 62 | 1013.9 |
| 20260508070000 | 49 | 207 | 0.0 | 4.3 | 0.00 | 0.00 | 0.00 | 62 | 1013.9 |
| 20260508065859 | 49 | 198 | 0.0 | 4.3 | 0.00 | 0.00 | 0.00 | 61 | 1013.9 |
| 20260508065759 | 49 | 187 | 2.6 | 4.3 | 0.00 | 0.00 | 0.00 | 62 | 1013.9 |
| 20260508065701 | 49 | 262 | 0.0 | 2.6 | 0.00 | 0.00 | 0.00 | 61 | 1013.8 |
| 20260508065559 | 49 | 262 | 0.0 | 4.3 | 0.00 | 0.00 | 0.00 | 61 | 1013.9 |
| 20260508065459 | 49 | 193 | 0.0 | 4.3 | 0.00 | 0.00 | 0.00 | 61 | 1014.0 |
| 20260508065400 | 49 | 193 | 1.7 | 4.3 | 0.00 | 0.00 | 0.00 | 61 | 1014.1 |
| 20260508065300 | 49 | 200 | 0.0 | 4.3 | 0.00 | 0.00 | 0.00 | 61 | 1014.0 |
| 20260508065159 | 49 | 201 | 0.0 | 4.3 | 0.00 | 0.00 | 0.00 | 61 | 1014.1 |
| 20260508065059 | 49 | 194 | 0.9 | 4.3 | 0.00 | 0.00 | 0.00 | 61 | 1014.0 |
| 20260508064902 | 49 | 230 | 0.0 | 5.2 | 0.00 | 0.00 | 0.00 | 60 | 1014.0 |
| 20260508064800 | 49 | 138 | 0.9 | 5.2 | 0.00 | 0.00 | 0.00 | 60 | 1014.0 |
| 20260508064659 | 49 | 174 | 5.2 | 5.2 | 0.00 | 0.00 | 0.00 | 61 | 1014.1 |
| 20260508064600 | 49 | 177 | 2.6 | 5.2 | 0.00 | 0.00 | 0.00 | 60 | 1014.1 |
| 20260508064403 | 50 | 231 | 0.0 | 5.2 | 0.00 | 0.00 | 0.00 | 60 | 1014.2 |
| 20260508064259 | 49 | 190 | 1.7 | 5.2 | 0.00 | 0.00 | 0.00 | 60 | 1014.3 |
| 20260508064158 | 50 | 194 | 1.7 | 5.2 | 0.00 | 0.00 | 0.00 | 60 | 1014.3 |
| 20260508064100 | 50 | 205 | 0.9 | 5.2 | 0.00 | 0.00 | 0.00 | 60 | 1014.3 |
| 20260508063759 | 50 | 189 | 0.9 | 4.3 | 0.00 | 0.00 | 0.00 | 60 | 1014.5 |
| 20260508063659 | 50 | 195 | 0.9 | 4.3 | 0.00 | 0.00 | 0.00 | 60 | 1014.4 |
| 20260508063559 | 50 | 175 | 1.7 | 4.3 | 0.00 | 0.00 | 0.00 | 60 | 1014.5 |
| 20260508063501 | 49 | 212 | 0.0 | 4.3 | 0.00 | 0.00 | 0.00 | 60 | 1014.5 |
| 20260508063401 | 49 | 184 | 0.0 | 4.3 | 0.00 | 0.00 | 0.00 | 60 | 1014.5 |
| 20260508063259 | 49 | 242 | 1.7 | 2.6 | 0.00 | 0.00 | 0.00 | 60 | 1014.6 |
| 20260508063201 | 50 | 213 | 0.9 | 2.6 | 0.00 | 0.00 | 0.00 | 60 | 1014.5 |
| 20260508063058 | 49 | 259 | 2.6 | 3.5 | 0.00 | 0.00 | 0.00 | 60 | 1014.5 |
| 20260508062959 | 49 | 313 | 1.7 | 3.5 | 0.00 | 0.00 | 0.00 | 60 | 1014.6 |
| 20260508062800 | 49 | 221 | 0.0 | 3.5 | 0.00 | 0.00 | 0.00 | 60 | 1014.6 |
| 20260508062700 | 49 | 214 | 0.0 | 3.5 | 0.00 | 0.00 | 0.00 | 60 | 1014.6 |
| 20260508062600 | 49 | 188 | 0.9 | 3.5 | 0.00 | 0.00 | 0.00 | 60 | 1014.5 |
| 20260508062500 | 49 | 206 | 1.7 | 3.5 | 0.00 | 0.00 | 0.00 | 60 | 1014.6 |
| 20260508062358 | 49 | 269 | 1.7 | 3.5 | 0.00 | 0.00 | 0.00 | 60 | 1014.6 |
| 20260508062159 | 49 | 312 | 0.0 | 5.2 | 0.00 | 0.00 | 0.00 | 60 | 1014.6 |
| 20260508062059 | 49 | 207 | 0.9 | 5.2 | 0.00 | 0.00 | 0.00 | 60 | 1014.7 |
| 20260508062000 | 49 | 317 | 0.9 | 5.2 | 0.00 | 0.00 | 0.00 | 60 | 1014.6 |
| 20260508061900 | 49 | 186 | 1.7 | 5.2 | 0.00 | 0.00 | 0.00 | 61 | 1014.6 |
| 20260508061800 | 49 | 244 | 1.7 | 5.2 | 0.00 | 0.00 | 0.00 | 61 | 1014.7 |
| 20260508061659 | 49 | 227 | 0.9 | 5.2 | 0.00 | 0.00 | 0.00 | 61 | 1014.7 |
| 20260508061559 | 49 | 227 | 0.9 | 5.2 | 0.00 | 0.00 | 0.00 | 61 | 1014.6 |
| 20260508061458 | 49 | 206 | 1.7 | 5.2 | 0.00 | 0.00 | 0.00 | 61 | 1014.7 |
| 20260508061400 | 49 | 270 | 0.0 | 5.2 | 0.00 | 0.00 | 0.00 | 61 | 1014.6 |
| 20260508061259 | 49 | 275 | 2.6 | 5.2 | 0.00 | 0.00 | 0.00 | 61 | 1014.7 |
| 20260508061200 | 49 | 216 | 0.0 | 1.7 | 0.00 | 0.00 | 0.00 | 61 | 1014.7 |
| 20260508061100 | 49 | 206 | 0.0 | 1.7 | 0.00 | 0.00 | 0.00 | 61 | 1014.7 |
| 20260508060959 | 49 | 211 | 0.0 | 1.7 | 0.00 | 0.00 | 0.00 | 61 | 1014.7 |
| 20260508060801 | 49 | 217 | 0.0 | 1.7 | 0.00 | 0.00 | 0.00 | 61 | 1014.7 |
| 20260508060658 | 49 | 263 | 0.0 | 1.7 | 0.00 | 0.00 | 0.00 | 61 | 1014.8 |
| 20260508060600 | 49 | 190 | 0.0 | 1.7 | 0.00 | 0.00 | 0.00 | 61 | 1014.8 |
| 20260508060359 | 49 | 229 | 0.0 | 1.7 | 0.00 | 0.00 | 0.00 | 61 | 1014.7 |
| 20260508060300 | 49 | 146 | 0.0 | 1.7 | 0.00 | 0.00 | 0.00 | 61 | 1014.8 |
| 20260508060059 | 49 | 217 | 0.0 | 2.6 | 0.00 | 0.00 | 0.00 | 61 | 1014.8 |
| 20260508060000 | 49 | 217 | 0.0 | 2.6 | 0.00 | 0.00 | 0.00 | 61 | 1014.8 |
| 20260508055859 | 49 | 244 | 0.0 | 2.6 | 0.00 | 0.00 | 0.00 | 62 | 1014.8 |
| 20260508055759 | 49 | 255 | 0.0 | 2.6 | 0.00 | 0.00 | 0.00 | 61 | 1014.8 |
| 20260508055658 | 49 | 307 | 0.0 | 2.6 | 0.00 | 0.00 | 0.00 | 61 | 1014.7 |
| 20260508055600 | 49 | 259 | 0.0 | 2.6 | 0.00 | 0.00 | 0.00 | 61 | 1014.8 |
| 20260508055359 | 49 | 215 | 0.0 | 2.6 | 0.00 | 0.00 | 0.00 | 61 | 1014.7 |
| 20260508055300 | 49 | 281 | 0.0 | 2.6 | 0.00 | 0.00 | 0.00 | 61 | 1014.7 |
| 20260508055200 | 49 | 283 | 0.9 | 2.6 | 0.00 | 0.00 | 0.00 | 60 | 1014.7 |
| 20260508055059 | 49 | 292 | 1.7 | 1.7 | 0.00 | 0.00 | 0.00 | 60 | 1014.7 |
| 20260508055000 | 49 | 263 | 0.0 | 1.7 | 0.00 | 0.00 | 0.00 | 60 | 1014.7 |
| 20260508054859 | 49 | 263 | 0.9 | 1.7 | 0.00 | 0.00 | 0.00 | 60 | 1014.6 |
| 20260508054800 | 49 | 196 | 0.0 | 1.7 | 0.00 | 0.00 | 0.00 | 60 | 1014.6 |
| 20260508054659 | 49 | 193 | 0.9 | 1.7 | 0.00 | 0.00 | 0.00 | 60 | 1014.6 |
| 20260508054559 | 49 | 309 | 0.0 | 1.7 | 0.00 | 0.00 | 0.00 | 60 | 1014.6 |
| 20260508054358 | 50 | 277 | 0.0 | 2.6 | 0.00 | 0.00 | 0.00 | 59 | 1014.6 |
| 20260508054301 | 50 | 277 | 1.7 | 2.6 | 0.00 | 0.00 | 0.00 | 60 | 1014.6 |
| 20260508054159 | 50 | 267 | 0.0 | 2.6 | 0.00 | 0.00 | 0.00 | 59 | 1014.6 |
| 20260508054058 | 50 | 275 | 1.7 | 2.6 | 0.00 | 0.00 | 0.00 | 59 | 1014.7 |
| 20260508053959 | 50 | 246 | 0.0 | 2.6 | 0.00 | 0.00 | 0.00 | 58 | 1014.7 |
| 20260508053859 | 50 | 246 | 0.0 | 2.6 | 0.00 | 0.00 | 0.00 | 58 | 1014.7 |
| 20260508053758 | 50 | 248 | 0.9 | 2.6 | 0.00 | 0.00 | 0.00 | 58 | 1014.6 |
| 20260508053700 | 50 | 239 | 1.7 | 4.3 | 0.00 | 0.00 | 0.00 | 58 | 1014.7 |
| 20260508053459 | 50 | 293 | 0.0 | 4.3 | 0.00 | 0.00 | 0.00 | 58 | 1014.6 |
| 20260508053359 | 50 | 286 | 0.0 | 4.3 | 0.00 | 0.00 | 0.00 | 58 | 1014.6 |
| 20260508053301 | 50 | 265 | 0.0 | 4.3 | 0.00 | 0.00 | 0.00 | 58 | 1014.6 |
| 20260508053100 | 50 | 197 | 0.0 | 4.3 | 0.00 | 0.00 | 0.00 | 57 | 1014.6 |
| 20260508052959 | 50 | 169 | 0.9 | 4.3 | 0.00 | 0.00 | 0.00 | 58 | 1014.6 |
| 20260508052901 | 50 | 219 | 2.6 | 4.3 | 0.00 | 0.00 | 0.00 | 58 | 1014.6 |
| 20260508052759 | 50 | 259 | 0.9 | 4.3 | 0.00 | 0.00 | 0.00 | 57 | 1014.6 |
| 20260508052701 | 50 | 291 | 0.0 | 4.3 | 0.00 | 0.00 | 0.00 | 57 | 1014.6 |
| 20260508052559 | 50 | 198 | 1.7 | 4.3 | 0.00 | 0.00 | 0.00 | 57 | 1014.5 |
| 20260508052500 | 50 | 198 | 2.6 | 4.3 | 0.00 | 0.00 | 0.00 | 58 | 1014.6 |
| 20260508052358 | 50 | 321 | 0.0 | 4.3 | 0.00 | 0.00 | 0.00 | 58 | 1014.6 |
| 20260508052259 | 50 | 234 | 0.9 | 4.3 | 0.00 | 0.00 | 0.00 | 58 | 1014.6 |
| 20260508052200 | 50 | 178 | 2.6 | 3.5 | 0.00 | 0.00 | 0.00 | 58 | 1014.6 |
| 20260508052100 | 50 | 252 | 0.9 | 2.6 | 0.00 | 0.00 | 0.00 | 57 | 1014.6 |
| 20260508052000 | 50 | 347 | 1.7 | 2.6 | 0.00 | 0.00 | 0.00 | 58 | 1014.6 |
| 20260508051859 | 50 | 194 | 0.9 | 2.6 | 0.00 | 0.00 | 0.00 | 58 | 1014.5 |
| 20260508051758 | 50 | 187 | 0.9 | 2.6 | 0.00 | 0.00 | 0.00 | 58 | 1014.6 |
| 20260508051700 | 50 | 195 | 0.0 | 4.3 | 0.00 | 0.00 | 0.00 | 58 | 1014.5 |
| 20260508051601 | 50 | 190 | 0.0 | 4.3 | 0.00 | 0.00 | 0.00 | 57 | 1014.5 |
| 20260508051500 | 50 | 192 | 0.0 | 4.3 | 0.00 | 0.00 | 0.00 | 57 | 1014.5 |
| 20260508051400 | 50 | 192 | 0.0 | 4.3 | 0.00 | 0.00 | 0.00 | 57 | 1014.5 |
| 20260508051259 | 50 | 227 | 0.9 | 4.3 | 0.00 | 0.00 | 0.00 | 57 | 1014.5 |
| 20260508051159 | 50 | 227 | 1.7 | 4.3 | 0.00 | 0.00 | 0.00 | 57 | 1014.6 |
| 20260508051101 | 50 | 237 | 0.0 | 4.3 | 0.00 | 0.00 | 0.00 | 57 | 1014.6 |
| 20260508051000 | 50 | 200 | 0.0 | 4.3 | 0.00 | 0.00 | 0.00 | 57 | 1014.5 |
| 20260508050858 | 50 | 202 | 0.9 | 4.3 | 0.00 | 0.00 | 0.00 | 56 | 1014.6 |
| 20260508050800 | 50 | 236 | 0.0 | 3.5 | 0.00 | 0.00 | 0.00 | 57 | 1014.6 |
| 20260508050659 | 50 | 254 | 0.0 | 3.5 | 0.00 | 0.00 | 0.00 | 56 | 1014.5 |
| 20260508050459 | 50 | 219 | 0.9 | 5.2 | 0.00 | 0.00 | 0.00 | 56 | 1014.5 |
| 20260508050359 | 50 | 211 | 0.9 | 5.2 | 0.00 | 0.00 | 0.00 | 56 | 1014.5 |
| 20260508050159 | 50 | 186 | 1.7 | 5.2 | 0.00 | 0.00 | 0.00 | 56 | 1014.4 |
| 20260508050059 | 50 | 274 | 0.0 | 5.2 | 0.00 | 0.00 | 0.00 | 57 | 1014.4 |
| 20260508050000 | 50 | 225 | 0.0 | 5.2 | 0.00 | 0.00 | 0.00 | 56 | 1014.4 |
| 20260508045900 | 50 | 200 | 0.0 | 5.2 | 0.00 | 0.00 | 0.00 | 56 | 1014.5 |
| 20260508045759 | 50 | 218 | 0.0 | 5.2 | 0.00 | 0.00 | 0.00 | 56 | 1014.5 |
| 20260508045658 | 50 | 169 | 4.3 | 4.3 | 0.00 | 0.00 | 0.00 | 57 | 1014.4 |
| 20260508045558 | 50 | 192 | 0.0 | 4.3 | 0.00 | 0.00 | 0.00 | 56 | 1014.5 |
| 20260508045358 | 50 | 204 | 1.7 | 4.3 | 0.00 | 0.00 | 0.00 | 57 | 1014.4 |
| 20260508045059 | 50 | 237 | 1.7 | 2.6 | 0.00 | 0.00 | 0.00 | 57 | 1014.4 |
| 20260508044957 | 50 | 293 | 0.9 | 2.6 | 0.00 | 0.00 | 0.00 | 57 | 1014.5 |
| 20260508044859 | 50 | 212 | 0.0 | 2.6 | 0.00 | 0.00 | 0.00 | 56 | 1014.5 |
| 20260508044759 | 50 | 212 | 0.0 | 2.6 | 0.00 | 0.00 | 0.00 | 57 | 1014.5 |
| 20260508044658 | 50 | 211 | 0.0 | 2.6 | 0.00 | 0.00 | 0.00 | 56 | 1014.5 |
| 20260508044558 | 50 | 211 | 0.0 | 2.6 | 0.00 | 0.00 | 0.00 | 57 | 1014.6 |
| 20260508044458 | 50 | 199 | 2.6 | 2.6 | 0.00 | 0.00 | 0.00 | 57 | 1014.6 |
| 20260508044358 | 50 | 161 | 3.5 | 3.5 | 0.00 | 0.00 | 0.00 | 58 | 1014.5 |
| 20260508044259 | 50 | 200 | 0.0 | 2.6 | 0.00 | 0.00 | 0.00 | 58 | 1014.5 |
| 20260508044200 | 50 | 209 | 0.9 | 2.6 | 0.00 | 0.00 | 0.00 | 58 | 1014.5 |
| 20260508044058 | 50 | 294 | 0.0 | 2.6 | 0.00 | 0.00 | 0.00 | 57 | 1014.5 |
| 20260508043959 | 50 | 223 | 1.7 | 2.6 | 0.00 | 0.00 | 0.00 | 58 | 1014.6 |
| 20260508043758 | 50 | 188 | 0.9 | 2.6 | 0.00 | 0.00 | 0.00 | 57 | 1014.6 |
| 20260508043658 | 50 | 194 | 1.7 | 2.6 | 0.00 | 0.00 | 0.00 | 57 | 1014.6 |
| 20260508043559 | 50 | 261 | 2.6 | 2.6 | 0.00 | 0.00 | 0.00 | 57 | 1014.6 |
| 20260508043258 | 49 | 227 | 0.0 | 2.6 | 0.00 | 0.00 | 0.00 | 58 | 1014.6 |
| 20260508043202 | 49 | 226 | 0.9 | 2.6 | 0.00 | 0.00 | 0.00 | 57 | 1014.6 |
| 20260508043101 | 49 | 226 | 0.0 | 1.7 | 0.00 | 0.00 | 0.00 | 57 | 1014.6 |
| 20260508043001 | 49 | 226 | 0.0 | 1.7 | 0.00 | 0.00 | 0.00 | 58 | 1014.5 |
| 20260508042902 | 49 | 226 | 0.0 | 1.7 | 0.00 | 0.00 | 0.00 | 58 | 1014.5 |
| 20260508042801 | 49 | 226 | 0.0 | 1.7 | 0.00 | 0.00 | 0.00 | 58 | 1014.5 |
| 20260508042701 | 49 | 226 | 0.0 | 1.7 | 0.00 | 0.00 | 0.00 | 58 | 1014.5 |
| 20260508042601 | 49 | 226 | 1.7 | 1.7 | 0.00 | 0.00 | 0.00 | 58 | 1014.5 |
| 20260508042501 | 49 | 229 | 0.9 | 0.9 | 0.00 | 0.00 | 0.00 | 58 | 1014.5 |
| 20260508042402 | 49 | 229 | 0.0 | 1.7 | 0.00 | 0.00 | 0.00 | 59 | 1014.5 |
| 20260508042306 | 49 | 259 | 0.0 | 1.7 | 0.00 | 0.00 | 0.00 | 59 | 1014.5 |
| 20260508042101 | 49 | 217 | 0.0 | 1.7 | 0.00 | 0.00 | 0.00 | 58 | 1014.5 |
| 20260508042002 | 49 | 217 | 0.0 | 1.7 | 0.00 | 0.00 | 0.00 | 59 | 1014.5 |
| 20260508041902 | 49 | 217 | 0.0 | 1.7 | 0.00 | 0.00 | 0.00 | 59 | 1014.5 |
| 20260508041801 | 49 | 217 | 0.0 | 1.7 | 0.00 | 0.00 | 0.00 | 59 | 1014.5 |
| 20260508041702 | 49 | 219 | 0.0 | 1.7 | 0.00 | 0.00 | 0.00 | 59 | 1014.5 |
| 20260508041602 | 49 | 219 | 0.0 | 1.7 | 0.00 | 0.00 | 0.00 | 59 | 1014.5 |
| 20260508041501 | 49 | 229 | 1.7 | 2.6 | 0.00 | 0.00 | 0.00 | 60 | 1014.6 |
| 20260508041401 | 49 | 178 | 0.0 | 2.6 | 0.00 | 0.00 | 0.00 | 59 | 1014.6 |
| 20260508041301 | 49 | 178 | 0.0 | 2.6 | 0.00 | 0.00 | 0.00 | 59 | 1014.6 |
| 20260508041101 | 49 | 184 | 0.9 | 2.6 | 0.00 | 0.00 | 0.00 | 60 | 1014.5 |
| 20260508041002 | 49 | 211 | 0.0 | 2.6 | 0.00 | 0.00 | 0.00 | 60 | 1014.5 |
| 20260508040902 | 49 | 212 | 0.0 | 2.6 | 0.00 | 0.00 | 0.00 | 60 | 1014.5 |
| 20260508040702 | 48 | 207 | 0.0 | 2.6 | 0.00 | 0.00 | 0.00 | 60 | 1014.4 |
| 20260508040501 | 48 | 225 | 0.0 | 2.6 | 0.00 | 0.00 | 0.00 | 61 | 1014.4 |
| 20260508040401 | 48 | 191 | 0.9 | 2.6 | 0.00 | 0.00 | 0.00 | 61 | 1014.4 |
| 20260508040302 | 48 | 211 | 0.9 | 2.6 | 0.00 | 0.00 | 0.00 | 62 | 1014.5 |
| 20260508040202 | 48 | 206 | 0.0 | 2.6 | 0.00 | 0.00 | 0.00 | 61 | 1014.4 |
| 20260508040103 | 48 | 206 | 0.9 | 3.5 | 0.00 | 0.00 | 0.00 | 62 | 1014.4 |
| 20260508040000 | 48 | 231 | 0.9 | 1.7 | 0.00 | 0.00 | 0.00 | 62 | 1014.3 |
| 20260508035901 | 47 | 165 | 0.0 | 1.7 | 0.00 | 0.00 | 0.00 | 62 | 1014.4 |
| 20260508035800 | 47 | 165 | 0.0 | 1.7 | 0.00 | 0.00 | 0.00 | 63 | 1014.4 |
| 20260508035700 | 47 | 165 | 0.0 | 1.7 | 0.00 | 0.00 | 0.00 | 63 | 1014.4 |
| 20260508035501 | 47 | 157 | 0.0 | 1.7 | 0.00 | 0.00 | 0.00 | 63 | 1014.4 |
| 20260508035401 | 47 | 135 | 0.0 | 1.7 | 0.00 | 0.00 | 0.00 | 64 | 1014.4 |
| 20260508035259 | 47 | 135 | 0.0 | 1.7 | 0.00 | 0.00 | 0.00 | 64 | 1014.5 |
| 20260508035201 | 47 | 144 | 0.0 | 1.7 | 0.00 | 0.00 | 0.00 | 63 | 1014.4 |
| 20260508035101 | 47 | 146 | 0.0 | 1.7 | 0.00 | 0.00 | 0.00 | 64 | 1014.4 |
| 20260508035000 | 47 | 183 | 0.0 | 1.7 | 0.00 | 0.00 | 0.00 | 65 | 1014.4 |
| 20260508034859 | 47 | 183 | 0.0 | 1.7 | 0.00 | 0.00 | 0.00 | 64 | 1014.5 |
| 20260508034801 | 47 | 183 | 0.0 | 1.7 | 0.00 | 0.00 | 0.00 | 65 | 1014.5 |
| 20260508034701 | 46 | 183 | 0.0 | 1.7 | 0.00 | 0.00 | 0.00 | 64 | 1014.5 |
| 20260508034601 | 46 | 208 | 0.0 | 0.9 | 0.00 | 0.00 | 0.00 | 65 | 1014.5 |
| 20260508034500 | 46 | 208 | 0.0 | 0.9 | 0.00 | 0.00 | 0.00 | 65 | 1014.4 |
| 20260508034400 | 46 | 208 | 0.0 | 0.9 | 0.00 | 0.00 | 0.00 | 66 | 1014.4 |
| 20260508034159 | 46 | 208 | 0.0 | 0.0 | 0.00 | 0.00 | 0.00 | 66 | 1014.5 |
| 20260508034059 | 46 | 208 | 0.0 | 0.0 | 0.00 | 0.00 | 0.00 | 66 | 1014.5 |
| 20260508033901 | 46 | 208 | 0.0 | 0.0 | 0.00 | 0.00 | 0.00 | 66 | 1014.5 |
| 20260508033800 | 46 | 208 | 0.0 | 0.0 | 0.00 | 0.00 | 0.00 | 67 | 1014.5 |
| 20260508033700 | 46 | 208 | 0.0 | 0.0 | 0.00 | 0.00 | 0.00 | 66 | 1014.5 |
| 20260508033602 | 46 | 208 | 0.0 | 0.0 | 0.00 | 0.00 | 0.00 | 67 | 1014.6 |
| 20260508033400 | 46 | 208 | 0.0 | 0.0 | 0.00 | 0.00 | 0.00 | 66 | 1014.6 |
| 20260508033300 | 46 | 208 | 0.0 | 0.0 | 0.00 | 0.00 | 0.00 | 66 | 1014.6 |
| 20260508033201 | 46 | 208 | 0.0 | 0.9 | 0.00 | 0.00 | 0.00 | 67 | 1014.6 |
| 20260508033100 | 46 | 208 | 0.0 | 0.9 | 0.00 | 0.00 | 0.00 | 66 | 1014.5 |
| 20260508032800 | 46 | 208 | 0.0 | 0.9 | 0.00 | 0.00 | 0.00 | 66 | 1014.6 |
| 20260508032600 | 46 | 208 | 0.0 | 0.9 | 0.00 | 0.00 | 0.00 | 66 | 1014.7 |
| 20260508032501 | 46 | 208 | 0.0 | 0.9 | 0.00 | 0.00 | 0.00 | 66 | 1014.6 |
| 20260508032401 | 46 | 208 | 0.0 | 0.9 | 0.00 | 0.00 | 0.00 | 65 | 1014.6 |
| 20260508032301 | 46 | 208 | 0.0 | 0.0 | 0.00 | 0.00 | 0.00 | 66 | 1014.6 |
| 20260508032200 | 46 | 208 | 0.0 | 0.0 | 0.00 | 0.00 | 0.00 | 66 | 1014.6 |
| 20260508032100 | 46 | 208 | 0.0 | 0.0 | 0.00 | 0.00 | 0.00 | 67 | 1014.7 |
| 20260508032000 | 46 | 208 | 0.0 | 0.0 | 0.00 | 0.00 | 0.00 | 67 | 1014.6 |
| 20260508031900 | 46 | 208 | 0.0 | 0.0 | 0.00 | 0.00 | 0.00 | 67 | 1014.6 |
| 20260508031600 | 46 | 208 | 0.0 | 0.0 | 0.00 | 0.00 | 0.00 | 69 | 1014.6 |
| 20260508031501 | 46 | 208 | 0.0 | 0.0 | 0.00 | 0.00 | 0.00 | 69 | 1014.5 |
| 20260508031259 | 46 | 208 | 0.0 | 0.0 | 0.00 | 0.00 | 0.00 | 69 | 1014.6 |
| 20260508031102 | 46 | 208 | 0.0 | 0.0 | 0.00 | 0.00 | 0.00 | 69 | 1014.5 |
| 20260508031000 | 46 | 208 | 0.0 | 0.0 | 0.00 | 0.00 | 0.00 | 70 | 1014.5 |
| 20260508030902 | 46 | 208 | 0.0 | 0.0 | 0.00 | 0.00 | 0.00 | 70 | 1014.5 |
| 20260508030800 | 46 | 208 | 0.0 | 0.0 | 0.00 | 0.00 | 0.00 | 70 | 1014.5 |
| 20260508030700 | 46 | 208 | 0.0 | 0.0 | 0.00 | 0.00 | 0.00 | 70 | 1014.5 |
| 20260508030600 | 46 | 208 | 0.0 | 0.0 | 0.00 | 0.00 | 0.00 | 70 | 1014.5 |
| 20260508030400 | 46 | 208 | 0.0 | 0.0 | 0.00 | 0.00 | 0.00 | 70 | 1014.5 |
| 20260508030300 | 46 | 208 | 0.0 | 0.0 | 0.00 | 0.00 | 0.00 | 70 | 1014.5 |
| 20260508030159 | 46 | 208 | 0.0 | 0.0 | 0.00 | 0.00 | 0.00 | 69 | 1014.5 |
| 20260508030059 | 46 | 208 | 0.0 | 0.0 | 0.00 | 0.00 | 0.00 | 68 | 1014.4 |
| 20260508030000 | 46 | 208 | 0.0 | 0.0 | 0.00 | 0.00 | 0.00 | 68 | 1014.5 |
| 20260508025903 | 46 | 208 | 0.0 | 0.0 | 0.00 | 0.00 | 0.00 | 69 | 1014.5 |
| 20260508025802 | 46 | 208 | 0.0 | 0.0 | 0.00 | 0.00 | 0.00 | 69 | 1014.4 |
| 20260508025701 | 46 | 208 | 0.0 | 0.0 | 0.00 | 0.00 | 0.00 | 69 | 1014.5 |
| 20260508025601 | 46 | 208 | 0.0 | 0.0 | 0.00 | 0.00 | 0.00 | 69 | 1014.5 |
| 20260508025501 | 46 | 208 | 0.0 | 0.0 | 0.00 | 0.00 | 0.00 | 69 | 1014.5 |
| 20260508025401 | 46 | 208 | 0.0 | 0.0 | 0.00 | 0.00 | 0.00 | 69 | 1014.5 |
| 20260508025305 | 46 | 208 | 0.0 | 0.0 | 0.00 | 0.00 | 0.00 | 69 | 1014.5 |
| 20260508025201 | 46 | 208 | 0.0 | 0.0 | 0.00 | 0.00 | 0.00 | 69 | 1014.5 |
| 20260508025100 | 46 | 208 | 0.0 | 0.0 | 0.00 | 0.00 | 0.00 | 69 | 1014.5 |
| 20260508025001 | 46 | 208 | 0.0 | 0.0 | 0.00 | 0.00 | 0.00 | 70 | 1014.5 |
| 20260508024902 | 46 | 208 | 0.0 | 0.0 | 0.00 | 0.00 | 0.00 | 70 | 1014.5 |
| 20260508024802 | 46 | 208 | 0.0 | 0.0 | 0.00 | 0.00 | 0.00 | 70 | 1014.5 |
| 20260508024700 | 46 | 208 | 0.0 | 0.0 | 0.00 | 0.00 | 0.00 | 70 | 1014.5 |